| time (UTC) | temp C | wind direction | speed KPH | gust KPH | rain 1hr cm | rain 24hr cm | rain mn cm | humidity % | barometer mb |
| 20260906105703 | 32 | 238 | 4.8 | 17.7 | 0.00 | 0.00 | 0.00 | 54 | 1017.2 |
| 20260906105603 | 33 | 241 | 3.2 | 6.4 | 0.00 | 0.00 | 0.00 | 54 | 1017.0 |
| 20260906105503 | 32 | 233 | 3.2 | 6.4 | 0.00 | 0.00 | 0.00 | 53 | 1017.0 |
| 20260906105403 | 32 | 227 | 3.2 | 6.4 | 0.00 | 0.00 | 0.00 | 52 | 1017.1 |
| 20260906105306 | 32 | 223 | 3.2 | 6.4 | 0.00 | 0.00 | 0.00 | 52 | 1016.9 |
| 20260906105203 | 32 | 221 | 3.2 | 6.4 | 0.00 | 0.00 | 0.00 | 52 | 1017.1 |
| 20260906105103 | 33 | 221 | 1.6 | 6.4 | 0.00 | 0.00 | 0.00 | 52 | 1017.1 |
| 20260906105003 | 33 | 220 | 1.6 | 6.4 | 0.00 | 0.00 | 0.00 | 52 | 1017.2 |
| 20260906104903 | 33 | 218 | 1.6 | 3.2 | 0.00 | 0.00 | 0.00 | 52 | 1017.2 |
| 20260906104803 | 33 | 214 | 1.6 | 3.2 | 0.00 | 0.00 | 0.00 | 53 | 1017.2 |
| 20260906104703 | 32 | 212 | 1.6 | 3.2 | 0.00 | 0.00 | 0.00 | 52 | 1017.0 |
| 20260906104603 | 32 | 212 | 1.6 | 3.2 | 0.00 | 0.00 | 0.00 | 52 | 1017.3 |
| 20260906104503 | 32 | 214 | 1.6 | 3.2 | 0.00 | 0.00 | 0.00 | 52 | 1017.3 |
| 20260906104403 | 32 | 230 | 1.6 | 3.2 | 0.00 | 0.00 | 0.00 | 52 | 1017.1 |
| 20260906104303 | 32 | 236 | 1.6 | 3.2 | 0.00 | 0.00 | 0.00 | 51 | 1017.1 |
| 20260906104203 | 32 | 236 | 1.6 | 3.2 | 0.00 | 0.00 | 0.00 | 52 | 1017.4 |
| 20260906104103 | 32 | 238 | 1.6 | 3.2 | 0.00 | 0.00 | 0.00 | 52 | 1017.3 |
| 20260906104003 | 32 | 242 | 1.6 | 3.2 | 0.00 | 0.00 | 0.00 | 52 | 1017.3 |
| 20260906103903 | 32 | 251 | 0.0 | 3.2 | 0.00 | 0.00 | 0.00 | 52 | 1017.2 |
| 20260906103803 | 33 | 277 | 0.0 | 3.2 | 0.00 | 0.00 | 0.00 | 52 | 1017.0 |
| 20260906103703 | 33 | 268 | 1.6 | 3.2 | 0.00 | 0.00 | 0.00 | 52 | 1017.3 |
| 20260906103603 | 32 | 258 | 1.6 | 3.2 | 0.00 | 0.00 | 0.00 | 53 | 1017.0 |
| 20260906103503 | 32 | 255 | 1.6 | 6.4 | 0.00 | 0.00 | 0.00 | 53 | 1017.3 |
| 20260906103403 | 32 | 251 | 1.6 | 6.4 | 0.00 | 0.00 | 0.00 | 53 | 1017.2 |
| 20260906103303 | 33 | 249 | 1.6 | 6.4 | 0.00 | 0.00 | 0.00 | 53 | 1017.0 |
| 20260906103203 | 33 | 253 | 1.6 | 6.4 | 0.00 | 0.00 | 0.00 | 53 | 1017.1 |
| 20260906103103 | 32 | 252 | 1.6 | 6.4 | 0.00 | 0.00 | 0.00 | 54 | 1017.5 |
| 20260906103003 | 32 | 253 | 3.2 | 6.4 | 0.00 | 0.00 | 0.00 | 54 | 1017.4 |
| 20260906102903 | 32 | 256 | 3.2 | 6.4 | 0.00 | 0.00 | 0.00 | 54 | 1017.4 |
| 20260906102804 | 32 | 254 | 3.2 | 6.4 | 0.00 | 0.00 | 0.00 | 52 | 1017.4 |
| 20260906102704 | 32 | 255 | 3.2 | 6.4 | 0.00 | 0.00 | 0.00 | 53 | 1017.4 |
| 20260906102603 | 32 | 257 | 3.2 | 6.4 | 0.00 | 0.00 | 0.00 | 52 | 1017.4 |
| 20260906102503 | 32 | 253 | 3.2 | 6.4 | 0.00 | 0.00 | 0.00 | 53 | 1017.2 |
| 20260906102403 | 32 | 252 | 1.6 | 6.4 | 0.00 | 0.00 | 0.00 | 53 | 1017.3 |
| 20260906102306 | 32 | 252 | 1.6 | 6.4 | 0.00 | 0.00 | 0.00 | 54 | 1017.4 |
| 20260906102203 | 32 | 248 | 1.6 | 6.4 | 0.00 | 0.00 | 0.00 | 54 | 1017.4 |
| 20260906102104 | 32 | 248 | 1.6 | 6.4 | 0.00 | 0.00 | 0.00 | 56 | 1017.3 |
| 20260906102003 | 32 | 244 | 1.6 | 6.4 | 0.00 | 0.00 | 0.00 | 55 | 1017.3 |
| 20260906101903 | 32 | 212 | 0.0 | 3.2 | 0.00 | 0.00 | 0.00 | 56 | 1017.6 |
| 20260906101803 | 32 | 212 | 0.0 | 3.2 | 0.00 | 0.00 | 0.00 | 56 | 1017.2 |
| 20260906101703 | 32 | 212 | 0.0 | 3.2 | 0.00 | 0.00 | 0.00 | 56 | 1017.3 |
| 20260906101603 | 32 | 200 | 0.0 | 3.2 | 0.00 | 0.00 | 0.00 | 55 | 1017.4 |
| 20260906101503 | 33 | 225 | 0.0 | 3.2 | 0.00 | 0.00 | 0.00 | 52 | 1017.4 |
| 20260906101403 | 32 | 0 | 0.0 | 0.0 | 0.00 | 0.00 | 0.00 | 49 | 1017.5 |
| 20260906101303 | 32 | 0 | 0.0 | 0.0 | 0.00 | 0.00 | 0.00 | 49 | 1017.5 |
| 20260906101203 | 32 | 0 | 0.0 | 0.0 | 0.00 | 0.00 | 0.00 | 49 | 1017.3 |
| 20260906101103 | 33 | 0 | 0.0 | 0.0 | 0.00 | 0.00 | 0.00 | 47 | 1017.4 |
| 20260906101003 | 33 | 0 | 0.0 | 0.0 | 0.00 | 0.00 | 0.00 | 47 | 1017.5 |
| 20260906100903 | 32 | 0 | 0.0 | 0.0 | 0.00 | 0.00 | 0.00 | 48 | 1017.6 |
| 20260906100803 | 32 | 0 | 0.0 | 0.0 | 0.00 | 0.00 | 0.00 | 48 | 1017.2 |
| 20260906100703 | 32 | 0 | 0.0 | 0.0 | 0.00 | 0.00 | 0.00 | 48 | 1017.5 |
| 20260906100603 | 32 | 0 | 0.0 | 0.0 | 0.00 | 0.00 | 0.00 | 48 | 1017.4 |
| 20260906100503 | 32 | 0 | 0.0 | 0.0 | 0.00 | 0.00 | 0.00 | 47 | 1017.4 |
| 20260906100403 | 32 | 0 | 0.0 | 0.0 | 0.00 | 0.00 | 0.00 | 47 | 1017.6 |
| 20260906100303 | 32 | 0 | 0.0 | 0.0 | 0.00 | 0.00 | 0.00 | 47 | 1017.6 |
| 20260906100203 | 32 | 0 | 0.0 | 0.0 | 0.00 | 0.00 | 0.00 | 48 | 1017.5 |
| 20260906100103 | 32 | 202 | 0.0 | 3.2 | 0.00 | 0.00 | 0.00 | 48 | 1017.7 |
| 20260906100004 | 32 | 202 | 0.0 | 3.2 | 0.00 | 0.00 | 0.00 | 48 | 1017.7 |
| 20260906095903 | 32 | 202 | 0.0 | 3.2 | 0.00 | 0.00 | 0.00 | 47 | 1017.6 |
| 20260906095803 | 32 | 202 | 0.0 | 3.2 | 0.00 | 0.00 | 0.00 | 47 | 1017.6 |
| 20260906095703 | 32 | 202 | 0.0 | 3.2 | 0.00 | 0.00 | 0.00 | 46 | 1017.6 |
| 20260906095603 | 32 | 202 | 0.0 | 3.2 | 0.00 | 0.00 | 0.00 | 46 | 1017.8 |
| 20260906095503 | 32 | 202 | 0.0 | 3.2 | 0.00 | 0.00 | 0.00 | 47 | 1017.6 |
| 20260906095403 | 32 | 202 | 0.0 | 3.2 | 0.00 | 0.00 | 0.00 | 47 | 1017.4 |
| 20260906095306 | 32 | 202 | 0.0 | 3.2 | 0.00 | 0.00 | 0.00 | 47 | 1017.7 |
| 20260906095203 | 32 | 202 | 0.0 | 3.2 | 0.00 | 0.00 | 0.00 | 48 | 1017.9 |
| 20260906095103 | 32 | 0 | 0.0 | 0.0 | 0.00 | 0.00 | 0.00 | 48 | 1017.6 |
| 20260906095003 | 32 | 0 | 0.0 | 0.0 | 0.00 | 0.00 | 0.00 | 47 | 1017.6 |
| 20260906094903 | 32 | 0 | 0.0 | 0.0 | 0.00 | 0.00 | 0.00 | 47 | 1017.6 |
| 20260906094803 | 32 | 0 | 0.0 | 0.0 | 0.00 | 0.00 | 0.00 | 47 | 1017.7 |
| 20260906094703 | 32 | 0 | 0.0 | 0.0 | 0.00 | 0.00 | 0.00 | 47 | 1017.6 |
| 20260906094604 | 32 | 0 | 0.0 | 0.0 | 0.00 | 0.00 | 0.00 | 47 | 1017.7 |
| 20260906094504 | 32 | 0 | 0.0 | 0.0 | 0.00 | 0.00 | 0.00 | 47 | 1017.6 |
| 20260906094403 | 32 | 0 | 0.0 | 0.0 | 0.00 | 0.00 | 0.00 | 47 | 1017.6 |
| 20260906094303 | 32 | 0 | 0.0 | 0.0 | 0.00 | 0.00 | 0.00 | 47 | 1017.6 |
| 20260906094203 | 32 | 0 | 0.0 | 0.0 | 0.00 | 0.00 | 0.00 | 47 | 1017.5 |
| 20260906094103 | 32 | 0 | 0.0 | 0.0 | 0.00 | 0.00 | 0.00 | 46 | 1017.6 |
| 20260906094003 | 32 | 0 | 0.0 | 0.0 | 0.00 | 0.00 | 0.00 | 47 | 1017.6 |
| 20260906093903 | 32 | 0 | 0.0 | 0.0 | 0.00 | 0.00 | 0.00 | 47 | 1017.8 |
| 20260906093803 | 32 | 0 | 0.0 | 0.0 | 0.00 | 0.00 | 0.00 | 46 | 1017.7 |
| 20260906093703 | 32 | 0 | 0.0 | 0.0 | 0.00 | 0.00 | 0.00 | 46 | 1017.5 |
| 20260906093603 | 33 | 0 | 0.0 | 0.0 | 0.00 | 0.00 | 0.00 | 46 | 1017.5 |
| 20260906093503 | 32 | 0 | 0.0 | 0.0 | 0.00 | 0.00 | 0.00 | 47 | 1017.5 |
| 20260906093403 | 32 | 0 | 0.0 | 0.0 | 0.00 | 0.00 | 0.00 | 47 | 1017.7 |
| 20260906093303 | 32 | 0 | 0.0 | 0.0 | 0.00 | 0.00 | 0.00 | 47 | 1017.4 |
| 20260906093203 | 32 | 0 | 0.0 | 0.0 | 0.00 | 0.00 | 0.00 | 47 | 1017.6 |
| 20260906093103 | 32 | 0 | 0.0 | 0.0 | 0.00 | 0.00 | 0.00 | 47 | 1017.7 |
| 20260906093003 | 31 | 0 | 0.0 | 0.0 | 0.00 | 0.00 | 0.00 | 47 | 1017.7 |
| 20260906092903 | 31 | 0 | 0.0 | 0.0 | 0.00 | 0.00 | 0.00 | 48 | 1017.5 |
| 20260906092803 | 31 | 0 | 0.0 | 0.0 | 0.00 | 0.00 | 0.00 | 48 | 1017.7 |
| 20260906092703 | 32 | 0 | 0.0 | 0.0 | 0.00 | 0.00 | 0.00 | 48 | 1017.6 |
| 20260906092603 | 32 | 0 | 0.0 | 0.0 | 0.00 | 0.00 | 0.00 | 48 | 1017.7 |
| 20260906092503 | 31 | 0 | 0.0 | 0.0 | 0.00 | 0.00 | 0.00 | 49 | 1017.6 |
| 20260906092403 | 31 | 0 | 0.0 | 0.0 | 0.00 | 0.00 | 0.00 | 49 | 1017.6 |
| 20260906092306 | 31 | 247 | 0.0 | 3.2 | 0.00 | 0.00 | 0.00 | 49 | 1017.6 |
| 20260906092203 | 31 | 238 | 0.0 | 3.2 | 0.00 | 0.00 | 0.00 | 49 | 1017.7 |
| 20260906092103 | 31 | 236 | 0.0 | 3.2 | 0.00 | 0.00 | 0.00 | 48 | 1017.7 |
| 20260906092003 | 31 | 236 | 0.0 | 3.2 | 0.00 | 0.00 | 0.00 | 49 | 1017.5 |
| 20260906091903 | 32 | 236 | 0.0 | 3.2 | 0.00 | 0.00 | 0.00 | 49 | 1017.7 |
| 20260906091803 | 32 | 236 | 0.0 | 3.2 | 0.00 | 0.00 | 0.00 | 49 | 1017.6 |
| 20260906091703 | 31 | 236 | 0.0 | 3.2 | 0.00 | 0.00 | 0.00 | 49 | 1017.9 |
| 20260906091603 | 31 | 236 | 0.0 | 3.2 | 0.00 | 0.00 | 0.00 | 49 | 1017.8 |
| 20260906091503 | 31 | 236 | 0.0 | 3.2 | 0.00 | 0.00 | 0.00 | 50 | 1017.6 |
| 20260906091403 | 31 | 236 | 0.0 | 3.2 | 0.00 | 0.00 | 0.00 | 49 | 1017.8 |
| 20260906091303 | 31 | 234 | 0.0 | 3.2 | 0.00 | 0.00 | 0.00 | 50 | 1017.8 |
| 20260906091203 | 31 | 225 | 0.0 | 3.2 | 0.00 | 0.00 | 0.00 | 49 | 1017.6 |
| 20260906091103 | 32 | 0 | 0.0 | 0.0 | 0.00 | 0.00 | 0.00 | 49 | 1017.7 |
| 20260906091003 | 32 | 0 | 0.0 | 0.0 | 0.00 | 0.00 | 0.00 | 49 | 1017.9 |
| 20260906090903 | 32 | 0 | 0.0 | 0.0 | 0.00 | 0.00 | 0.00 | 49 | 1017.6 |
| 20260906090803 | 31 | 0 | 0.0 | 0.0 | 0.00 | 0.00 | 0.00 | 49 | 1017.8 |
| 20260906090703 | 31 | 0 | 0.0 | 0.0 | 0.00 | 0.00 | 0.00 | 49 | 1017.7 |
| 20260906090603 | 31 | 0 | 0.0 | 0.0 | 0.00 | 0.00 | 0.00 | 49 | 1017.8 |
| 20260906090503 | 31 | 0 | 0.0 | 0.0 | 0.00 | 0.00 | 0.00 | 49 | 1017.8 |
| 20260906090403 | 31 | 225 | 0.0 | 3.2 | 0.00 | 0.00 | 0.00 | 49 | 1017.6 |
| 20260906090303 | 31 | 225 | 0.0 | 3.2 | 0.00 | 0.00 | 0.00 | 49 | 1017.7 |
| 20260906090203 | 31 | 225 | 0.0 | 3.2 | 0.00 | 0.00 | 0.00 | 49 | 1017.9 |
| 20260906090103 | 32 | 225 | 0.0 | 3.2 | 0.00 | 0.00 | 0.00 | 49 | 1017.6 |
| 20260906090004 | 31 | 225 | 0.0 | 3.2 | 0.00 | 0.00 | 0.00 | 49 | 1017.6 |
| 20260906085903 | 31 | 225 | 0.0 | 3.2 | 0.00 | 0.00 | 0.00 | 49 | 1017.5 |
| 20260906085803 | 31 | 225 | 0.0 | 3.2 | 0.00 | 0.00 | 0.00 | 50 | 1017.7 |
| 20260906085703 | 31 | 225 | 0.0 | 3.2 | 0.00 | 0.00 | 0.00 | 50 | 1017.6 |
| 20260906085603 | 31 | 225 | 0.0 | 3.2 | 0.00 | 0.00 | 0.00 | 49 | 1017.8 |
| 20260906085503 | 31 | 225 | 0.0 | 3.2 | 0.00 | 0.00 | 0.00 | 49 | 1017.7 |
| 20260906085403 | 31 | 0 | 0.0 | 0.0 | 0.00 | 0.00 | 0.00 | 51 | 1017.6 |
| 20260906085306 | 31 | 0 | 0.0 | 0.0 | 0.00 | 0.00 | 0.00 | 51 | 1017.8 |
| 20260906085203 | 31 | 0 | 0.0 | 0.0 | 0.00 | 0.00 | 0.00 | 51 | 1017.8 |
| 20260906085103 | 31 | 0 | 0.0 | 0.0 | 0.00 | 0.00 | 0.00 | 51 | 1017.8 |
| 20260906085003 | 31 | 0 | 0.0 | 0.0 | 0.00 | 0.00 | 0.00 | 50 | 1017.7 |
| 20260906084903 | 31 | 0 | 0.0 | 0.0 | 0.00 | 0.00 | 0.00 | 49 | 1017.7 |
| 20260906084804 | 31 | 0 | 0.0 | 0.0 | 0.00 | 0.00 | 0.00 | 49 | 1017.9 |
| 20260906084703 | 31 | 0 | 0.0 | 0.0 | 0.00 | 0.00 | 0.00 | 49 | 1017.9 |
| 20260906084603 | 31 | 0 | 0.0 | 0.0 | 0.00 | 0.00 | 0.00 | 49 | 1017.6 |
| 20260906084503 | 31 | 0 | 0.0 | 0.0 | 0.00 | 0.00 | 0.00 | 49 | 1017.5 |
| 20260906084403 | 31 | 0 | 0.0 | 0.0 | 0.00 | 0.00 | 0.00 | 48 | 1017.6 |
| 20260906084303 | 31 | 0 | 0.0 | 0.0 | 0.00 | 0.00 | 0.00 | 48 | 1017.9 |
| 20260906084203 | 31 | 0 | 0.0 | 0.0 | 0.00 | 0.00 | 0.00 | 49 | 1017.7 |
| 20260906084103 | 31 | 0 | 0.0 | 0.0 | 0.00 | 0.00 | 0.00 | 49 | 1017.9 |
| 20260906084003 | 30 | 0 | 0.0 | 0.0 | 0.00 | 0.00 | 0.00 | 49 | 1017.7 |
| 20260906083903 | 31 | 0 | 0.0 | 0.0 | 0.00 | 0.00 | 0.00 | 50 | 1017.6 |
| 20260906083803 | 31 | 0 | 0.0 | 0.0 | 0.00 | 0.00 | 0.00 | 50 | 1017.8 |
| 20260906083703 | 31 | 0 | 0.0 | 0.0 | 0.00 | 0.00 | 0.00 | 50 | 1017.7 |
| 20260906083603 | 31 | 0 | 0.0 | 0.0 | 0.00 | 0.00 | 0.00 | 50 | 1017.8 |
| 20260906083503 | 31 | 0 | 0.0 | 0.0 | 0.00 | 0.00 | 0.00 | 50 | 1017.7 |
| 20260906083403 | 31 | 0 | 0.0 | 0.0 | 0.00 | 0.00 | 0.00 | 50 | 1017.5 |
| 20260906083303 | 31 | 0 | 0.0 | 0.0 | 0.00 | 0.00 | 0.00 | 51 | 1017.7 |
| 20260906083203 | 31 | 0 | 0.0 | 0.0 | 0.00 | 0.00 | 0.00 | 51 | 1017.7 |
| 20260906083103 | 31 | 0 | 0.0 | 0.0 | 0.00 | 0.00 | 0.00 | 52 | 1017.6 |
| 20260906083003 | 31 | 0 | 0.0 | 0.0 | 0.00 | 0.00 | 0.00 | 51 | 1017.7 |
| 20260906082903 | 31 | 0 | 0.0 | 0.0 | 0.00 | 0.00 | 0.00 | 51 | 1017.6 |
| 20260906082803 | 31 | 0 | 0.0 | 0.0 | 0.00 | 0.00 | 0.00 | 51 | 1017.6 |
| 20260906082703 | 30 | 0 | 0.0 | 0.0 | 0.00 | 0.00 | 0.00 | 51 | 1017.7 |
| 20260906082603 | 30 | 0 | 0.0 | 0.0 | 0.00 | 0.00 | 0.00 | 51 | 1017.5 |
| 20260906082503 | 30 | 0 | 0.0 | 0.0 | 0.00 | 0.00 | 0.00 | 51 | 1017.6 |
| 20260906082403 | 30 | 0 | 0.0 | 0.0 | 0.00 | 0.00 | 0.00 | 52 | 1017.6 |
| 20260906082306 | 30 | 0 | 0.0 | 0.0 | 0.00 | 0.00 | 0.00 | 52 | 1017.5 |
| 20260906082203 | 30 | 0 | 0.0 | 0.0 | 0.00 | 0.00 | 0.00 | 52 | 1017.7 |
| 20260906082103 | 30 | 0 | 0.0 | 0.0 | 0.00 | 0.00 | 0.00 | 52 | 1017.7 |
| 20260906082003 | 30 | 0 | 0.0 | 0.0 | 0.00 | 0.00 | 0.00 | 53 | 1017.6 |
| 20260906081903 | 31 | 0 | 0.0 | 0.0 | 0.00 | 0.00 | 0.00 | 52 | 1017.5 |
| 20260906081803 | 31 | 0 | 0.0 | 0.0 | 0.00 | 0.00 | 0.00 | 53 | 1017.3 |
| 20260906081703 | 31 | 0 | 0.0 | 0.0 | 0.00 | 0.00 | 0.00 | 53 | 1017.6 |
| 20260906081603 | 30 | 0 | 0.0 | 0.0 | 0.00 | 0.00 | 0.00 | 53 | 1017.5 |
| 20260906081503 | 30 | 0 | 0.0 | 0.0 | 0.00 | 0.00 | 0.00 | 54 | 1017.6 |
| 20260906081403 | 30 | 0 | 0.0 | 0.0 | 0.00 | 0.00 | 0.00 | 55 | 1017.6 |
| 20260906081303 | 30 | 0 | 0.0 | 0.0 | 0.00 | 0.00 | 0.00 | 55 | 1017.4 |
| 20260906081204 | 30 | 0 | 0.0 | 0.0 | 0.00 | 0.00 | 0.00 | 55 | 1017.6 |
| 20260906081103 | 30 | 0 | 0.0 | 0.0 | 0.00 | 0.00 | 0.00 | 55 | 1017.6 |
| 20260906081003 | 30 | 0 | 0.0 | 0.0 | 0.00 | 0.00 | 0.00 | 55 | 1017.4 |
| 20260906080903 | 30 | 0 | 0.0 | 0.0 | 0.00 | 0.00 | 0.00 | 55 | 1017.6 |
| 20260906080803 | 30 | 0 | 0.0 | 0.0 | 0.00 | 0.00 | 0.00 | 55 | 1017.7 |
| 20260906080703 | 30 | 0 | 0.0 | 0.0 | 0.00 | 0.00 | 0.00 | 56 | 1017.7 |
| 20260906080603 | 30 | 0 | 0.0 | 0.0 | 0.00 | 0.00 | 0.00 | 56 | 1017.3 |
| 20260906080503 | 30 | 0 | 0.0 | 0.0 | 0.00 | 0.00 | 0.00 | 55 | 1017.6 |
| 20260906080403 | 30 | 0 | 0.0 | 0.0 | 0.00 | 0.00 | 0.00 | 55 | 1017.5 |
| 20260906080303 | 30 | 0 | 0.0 | 0.0 | 0.00 | 0.00 | 0.00 | 55 | 1017.4 |
| 20260906080203 | 30 | 0 | 0.0 | 0.0 | 0.00 | 0.00 | 0.00 | 55 | 1017.5 |
| 20260906080103 | 30 | 0 | 0.0 | 0.0 | 0.00 | 0.00 | 0.00 | 55 | 1017.4 |
| 20260906080004 | 30 | 0 | 0.0 | 0.0 | 0.00 | 0.00 | 0.00 | 55 | 1017.5 |
| 20260906075903 | 30 | 0 | 0.0 | 0.0 | 0.00 | 0.00 | 0.00 | 55 | 1017.3 |
| 20260906075803 | 30 | 0 | 0.0 | 0.0 | 0.00 | 0.00 | 0.00 | 55 | 1017.3 |
| 20260906075703 | 30 | 0 | 0.0 | 0.0 | 0.00 | 0.00 | 0.00 | 55 | 1017.4 |
| 20260906075603 | 30 | 0 | 0.0 | 0.0 | 0.00 | 0.00 | 0.00 | 55 | 1017.3 |
| 20260906075503 | 30 | 0 | 0.0 | 0.0 | 0.00 | 0.00 | 0.00 | 55 | 1017.4 |
| 20260906075403 | 30 | 0 | 0.0 | 0.0 | 0.00 | 0.00 | 0.00 | 54 | 1017.2 |
| 20260906075306 | 30 | 0 | 0.0 | 0.0 | 0.00 | 0.00 | 0.00 | 55 | 1017.5 |
| 20260906075203 | 30 | 0 | 0.0 | 0.0 | 0.00 | 0.00 | 0.00 | 54 | 1017.4 |
| 20260906075103 | 31 | 0 | 0.0 | 0.0 | 0.00 | 0.00 | 0.00 | 54 | 1017.3 |
| 20260906075003 | 30 | 0 | 0.0 | 0.0 | 0.00 | 0.00 | 0.00 | 55 | 1017.4 |
| 20260906074903 | 30 | 0 | 0.0 | 0.0 | 0.00 | 0.00 | 0.00 | 55 | 1017.5 |
| 20260906074803 | 30 | 0 | 0.0 | 0.0 | 0.00 | 0.00 | 0.00 | 55 | 1017.4 |
| 20260906074703 | 30 | 0 | 0.0 | 0.0 | 0.00 | 0.00 | 0.00 | 55 | 1017.6 |
| 20260906074603 | 30 | 0 | 0.0 | 0.0 | 0.00 | 0.00 | 0.00 | 55 | 1017.4 |
| 20260906074503 | 30 | 0 | 0.0 | 0.0 | 0.00 | 0.00 | 0.00 | 55 | 1017.5 |
| 20260906074403 | 30 | 0 | 0.0 | 0.0 | 0.00 | 0.00 | 0.00 | 55 | 1017.4 |
| 20260906074303 | 30 | 0 | 0.0 | 0.0 | 0.00 | 0.00 | 0.00 | 55 | 1017.5 |
| 20260906074203 | 29 | 0 | 0.0 | 0.0 | 0.00 | 0.00 | 0.00 | 56 | 1017.3 |
| 20260906074103 | 29 | 0 | 0.0 | 0.0 | 0.00 | 0.00 | 0.00 | 56 | 1017.4 |
| 20260906074003 | 29 | 0 | 0.0 | 0.0 | 0.00 | 0.00 | 0.00 | 56 | 1017.5 |
| 20260906073903 | 29 | 0 | 0.0 | 0.0 | 0.00 | 0.00 | 0.00 | 56 | 1017.2 |
| 20260906073803 | 30 | 0 | 0.0 | 0.0 | 0.00 | 0.00 | 0.00 | 56 | 1017.5 |
| 20260906073703 | 30 | 0 | 0.0 | 0.0 | 0.00 | 0.00 | 0.00 | 56 | 1017.2 |
| 20260906073603 | 30 | 0 | 0.0 | 0.0 | 0.00 | 0.00 | 0.00 | 56 | 1017.4 |
| 20260906073504 | 30 | 0 | 0.0 | 0.0 | 0.00 | 0.00 | 0.00 | 56 | 1017.0 |
| 20260906073403 | 30 | 0 | 0.0 | 0.0 | 0.00 | 0.00 | 0.00 | 55 | 1017.5 |
| 20260906073303 | 30 | 0 | 0.0 | 0.0 | 0.00 | 0.00 | 0.00 | 55 | 1017.2 |
| 20260906073203 | 30 | 0 | 0.0 | 0.0 | 0.00 | 0.00 | 0.00 | 55 | 1017.1 |
| 20260906073103 | 30 | 0 | 0.0 | 0.0 | 0.00 | 0.00 | 0.00 | 56 | 1017.4 |
| 20260906073003 | 30 | 0 | 0.0 | 0.0 | 0.00 | 0.00 | 0.00 | 56 | 1017.2 |
| 20260906072903 | 30 | 0 | 0.0 | 0.0 | 0.00 | 0.00 | 0.00 | 57 | 1017.4 |
| 20260906072803 | 29 | 0 | 0.0 | 0.0 | 0.00 | 0.00 | 0.00 | 56 | 1017.4 |
| 20260906072703 | 29 | 0 | 0.0 | 0.0 | 0.00 | 0.00 | 0.00 | 56 | 1017.4 |
| 20260906072603 | 29 | 0 | 0.0 | 0.0 | 0.00 | 0.00 | 0.00 | 56 | 1017.3 |
| 20260906072503 | 29 | 0 | 0.0 | 0.0 | 0.00 | 0.00 | 0.00 | 56 | 1017.2 |
| 20260906072403 | 29 | 0 | 0.0 | 0.0 | 0.00 | 0.00 | 0.00 | 56 | 1017.2 |
| 20260906072306 | 29 | 0 | 0.0 | 0.0 | 0.00 | 0.00 | 0.00 | 57 | 1017.0 |
| 20260906072203 | 29 | 0 | 0.0 | 0.0 | 0.00 | 0.00 | 0.00 | 57 | 1017.2 |
| 20260906072103 | 29 | 0 | 0.0 | 0.0 | 0.00 | 0.00 | 0.00 | 57 | 1017.1 |
| 20260906072003 | 29 | 0 | 0.0 | 0.0 | 0.00 | 0.00 | 0.00 | 58 | 1017.1 |
| 20260906071903 | 29 | 0 | 0.0 | 0.0 | 0.00 | 0.00 | 0.00 | 57 | 1017.2 |
| 20260906071803 | 29 | 0 | 0.0 | 0.0 | 0.00 | 0.00 | 0.00 | 56 | 1017.2 |
| 20260906071703 | 29 | 0 | 0.0 | 0.0 | 0.00 | 0.00 | 0.00 | 56 | 1017.1 |
| 20260906071603 | 29 | 0 | 0.0 | 0.0 | 0.00 | 0.00 | 0.00 | 57 | 1017.1 |
| 20260906071503 | 29 | 0 | 0.0 | 0.0 | 0.00 | 0.00 | 0.00 | 57 | 1017.1 |
| 20260906071403 | 29 | 0 | 0.0 | 0.0 | 0.00 | 0.00 | 0.00 | 57 | 1017.1 |
| 20260906071303 | 29 | 0 | 0.0 | 0.0 | 0.00 | 0.00 | 0.00 | 56 | 1017.1 |
| 20260906071203 | 29 | 0 | 0.0 | 0.0 | 0.00 | 0.00 | 0.00 | 57 | 1017.2 |
| 20260906071103 | 29 | 0 | 0.0 | 0.0 | 0.00 | 0.00 | 0.00 | 57 | 1017.1 |
| 20260906071003 | 29 | 0 | 0.0 | 0.0 | 0.00 | 0.00 | 0.00 | 57 | 1017.2 |
| 20260906070903 | 29 | 0 | 0.0 | 0.0 | 0.00 | 0.00 | 0.00 | 57 | 1017.1 |
| 20260906070803 | 29 | 0 | 0.0 | 0.0 | 0.00 | 0.00 | 0.00 | 57 | 1017.2 |
| 20260906070703 | 29 | 0 | 0.0 | 0.0 | 0.00 | 0.00 | 0.00 | 57 | 1017.1 |
| 20260906070603 | 29 | 0 | 0.0 | 0.0 | 0.00 | 0.00 | 0.00 | 57 | 1017.0 |
| 20260906070503 | 29 | 0 | 0.0 | 0.0 | 0.00 | 0.00 | 0.00 | 56 | 1017.2 |
| 20260906070403 | 29 | 0 | 0.0 | 0.0 | 0.00 | 0.00 | 0.00 | 57 | 1017.2 |
| 20260906070303 | 29 | 0 | 0.0 | 0.0 | 0.00 | 0.00 | 0.00 | 57 | 1017.0 |
| 20260906070203 | 28 | 0 | 0.0 | 0.0 | 0.00 | 0.00 | 0.00 | 58 | 1017.3 |
| 20260906070103 | 28 | 0 | 0.0 | 0.0 | 0.00 | 0.00 | 0.00 | 58 | 1017.0 |
| 20260906070004 | 28 | 0 | 0.0 | 0.0 | 0.00 | 0.00 | 0.00 | 59 | 1017.0 |
| 20260906065903 | 28 | 0 | 0.0 | 0.0 | 0.00 | 0.00 | 0.00 | 58 | 1017.2 |
| 20260906065803 | 28 | 0 | 0.0 | 0.0 | 0.00 | 0.00 | 0.00 | 58 | 1017.1 |
| 20260906065703 | 28 | 0 | 0.0 | 0.0 | 0.00 | 0.00 | 0.00 | 58 | 1016.9 |
| 20260906065603 | 28 | 0 | 0.0 | 0.0 | 0.00 | 0.00 | 0.00 | 58 | 1017.1 |
| 20260906065503 | 28 | 0 | 0.0 | 0.0 | 0.00 | 0.00 | 0.00 | 58 | 1016.9 |
| 20260906065403 | 28 | 0 | 0.0 | 0.0 | 0.00 | 0.00 | 0.00 | 58 | 1016.9 |
| 20260906065305 | 28 | 0 | 0.0 | 0.0 | 0.00 | 0.00 | 0.00 | 57 | 1017.3 |
| 20260906065203 | 28 | 0 | 0.0 | 0.0 | 0.00 | 0.00 | 0.00 | 57 | 1016.9 |
| 20260906065103 | 29 | 0 | 0.0 | 0.0 | 0.00 | 0.00 | 0.00 | 57 | 1017.0 |
| 20260906065003 | 29 | 0 | 0.0 | 0.0 | 0.00 | 0.00 | 0.00 | 57 | 1017.1 |
| 20260906064903 | 29 | 0 | 0.0 | 0.0 | 0.00 | 0.00 | 0.00 | 57 | 1017.0 |
| 20260906064803 | 29 | 0 | 0.0 | 0.0 | 0.00 | 0.00 | 0.00 | 57 | 1017.0 |
| 20260906064703 | 29 | 0 | 0.0 | 0.0 | 0.00 | 0.00 | 0.00 | 58 | 1017.0 |
| 20260906064603 | 29 | 0 | 0.0 | 0.0 | 0.00 | 0.00 | 0.00 | 58 | 1017.0 |
| 20260906064504 | 28 | 0 | 0.0 | 0.0 | 0.00 | 0.00 | 0.00 | 58 | 1017.0 |
| 20260906064403 | 29 | 0 | 0.0 | 0.0 | 0.00 | 0.00 | 0.00 | 58 | 1017.1 |
| 20260906064303 | 29 | 0 | 0.0 | 0.0 | 0.00 | 0.00 | 0.00 | 59 | 1016.9 |
| 20260906064203 | 29 | 0 | 0.0 | 0.0 | 0.00 | 0.00 | 0.00 | 59 | 1017.1 |
| 20260906064103 | 29 | 0 | 0.0 | 0.0 | 0.00 | 0.00 | 0.00 | 59 | 1016.8 |
| 20260906064003 | 28 | 0 | 0.0 | 0.0 | 0.00 | 0.00 | 0.00 | 58 | 1016.9 |
| 20260906063903 | 29 | 0 | 0.0 | 0.0 | 0.00 | 0.00 | 0.00 | 58 | 1016.9 |
| 20260906063803 | 29 | 0 | 0.0 | 0.0 | 0.00 | 0.00 | 0.00 | 58 | 1017.1 |
| 20260906063703 | 28 | 0 | 0.0 | 0.0 | 0.00 | 0.00 | 0.00 | 59 | 1016.8 |
| 20260906063603 | 28 | 0 | 0.0 | 0.0 | 0.00 | 0.00 | 0.00 | 59 | 1016.8 |
| 20260906063503 | 28 | 0 | 0.0 | 0.0 | 0.00 | 0.00 | 0.00 | 59 | 1017.0 |
| 20260906063403 | 28 | 0 | 0.0 | 0.0 | 0.00 | 0.00 | 0.00 | 59 | 1017.0 |
| 20260906063303 | 28 | 0 | 0.0 | 0.0 | 0.00 | 0.00 | 0.00 | 59 | 1016.9 |
| 20260906063203 | 28 | 0 | 0.0 | 0.0 | 0.00 | 0.00 | 0.00 | 58 | 1017.0 |
| 20260906063103 | 28 | 0 | 0.0 | 0.0 | 0.00 | 0.00 | 0.00 | 58 | 1017.0 |
| 20260906063003 | 28 | 0 | 0.0 | 0.0 | 0.00 | 0.00 | 0.00 | 59 | 1017.0 |
| 20260906062903 | 28 | 0 | 0.0 | 0.0 | 0.00 | 0.03 | 0.00 | 59 | 1017.1 |
| 20260906062803 | 28 | 0 | 0.0 | 0.0 | 0.00 | 0.03 | 0.00 | 58 | 1017.0 |
| 20260906062703 | 28 | 0 | 0.0 | 0.0 | 0.00 | 0.03 | 0.00 | 58 | 1017.1 |
| 20260906062603 | 28 | 0 | 0.0 | 0.0 | 0.00 | 0.03 | 0.00 | 59 | 1016.9 |
| 20260906062503 | 28 | 0 | 0.0 | 0.0 | 0.00 | 0.03 | 0.00 | 59 | 1016.9 |
| 20260906062403 | 28 | 0 | 0.0 | 0.0 | 0.00 | 0.03 | 0.00 | 59 | 1017.0 |
| 20260906062306 | 28 | 0 | 0.0 | 0.0 | 0.00 | 0.03 | 0.00 | 59 | 1016.9 |
| 20260906062203 | 27 | 0 | 0.0 | 0.0 | 0.00 | 0.03 | 0.00 | 60 | 1017.0 |
| 20260906062103 | 27 | 0 | 0.0 | 0.0 | 0.00 | 0.03 | 0.00 | 60 | 1016.9 |
| 20260906062003 | 27 | 0 | 0.0 | 0.0 | 0.00 | 0.03 | 0.00 | 60 | 1016.9 |
| 20260906061903 | 27 | 0 | 0.0 | 0.0 | 0.00 | 0.03 | 0.00 | 60 | 1016.9 |
| 20260906061803 | 27 | 0 | 0.0 | 0.0 | 0.00 | 0.03 | 0.00 | 60 | 1016.9 |
| 20260906061703 | 27 | 0 | 0.0 | 0.0 | 0.00 | 0.03 | 0.00 | 60 | 1017.1 |
| 20260906061603 | 27 | 0 | 0.0 | 0.0 | 0.00 | 0.03 | 0.00 | 60 | 1016.9 |
| 20260906061503 | 27 | 0 | 0.0 | 0.0 | 0.00 | 0.03 | 0.00 | 60 | 1016.9 |
| 20260906061403 | 27 | 0 | 0.0 | 0.0 | 0.00 | 0.03 | 0.00 | 60 | 1016.8 |
| 20260906061303 | 27 | 0 | 0.0 | 0.0 | 0.00 | 0.03 | 0.00 | 60 | 1017.1 |
| 20260906061203 | 27 | 0 | 0.0 | 0.0 | 0.00 | 0.03 | 0.00 | 60 | 1016.7 |
| 20260906061103 | 27 | 0 | 0.0 | 0.0 | 0.00 | 0.03 | 0.00 | 60 | 1016.8 |
| 20260906061003 | 27 | 0 | 0.0 | 0.0 | 0.00 | 0.03 | 0.00 | 60 | 1016.9 |
| 20260906060903 | 27 | 0 | 0.0 | 0.0 | 0.00 | 0.03 | 0.00 | 60 | 1016.8 |
| 20260906060803 | 27 | 0 | 0.0 | 0.0 | 0.00 | 0.03 | 0.00 | 60 | 1016.9 |
| 20260906060703 | 27 | 0 | 0.0 | 0.0 | 0.00 | 0.03 | 0.00 | 60 | 1016.9 |
| 20260906060603 | 27 | 0 | 0.0 | 0.0 | 0.00 | 0.03 | 0.00 | 60 | 1016.9 |
| 20260906060503 | 26 | 0 | 0.0 | 0.0 | 0.00 | 0.03 | 0.00 | 59 | 1016.8 |
| 20260906060403 | 26 | 0 | 0.0 | 0.0 | 0.00 | 0.03 | 0.00 | 59 | 1016.8 |
| 20260906060303 | 26 | 0 | 0.0 | 0.0 | 0.00 | 0.03 | 0.00 | 59 | 1016.9 |
| 20260906060203 | 27 | 0 | 0.0 | 0.0 | 0.00 | 0.03 | 0.00 | 58 | 1016.8 |
| 20260906060103 | 27 | 0 | 0.0 | 0.0 | 0.00 | 0.03 | 0.00 | 58 | 1016.7 |
| 20260906060003 | 27 | 0 | 0.0 | 0.0 | 0.00 | 0.03 | 0.00 | 57 | 1017.0 |
| 20260906055903 | 27 | 0 | 0.0 | 0.0 | 0.00 | 0.03 | 0.00 | 56 | 1016.8 |
| 20260906055803 | 27 | 0 | 0.0 | 0.0 | 0.00 | 0.03 | 0.00 | 57 | 1016.7 |
| 20260906055703 | 27 | 0 | 0.0 | 0.0 | 0.00 | 0.03 | 0.00 | 57 | 1016.7 |
| 20260906055603 | 27 | 0 | 0.0 | 0.0 | 0.00 | 0.03 | 0.00 | 57 | 1016.9 |
| 20260906055503 | 27 | 0 | 0.0 | 0.0 | 0.00 | 0.03 | 0.00 | 57 | 1016.7 |
| 20260906055403 | 27 | 0 | 0.0 | 0.0 | 0.00 | 0.03 | 0.00 | 57 | 1016.8 |
| 20260906055306 | 27 | 0 | 0.0 | 0.0 | 0.00 | 0.03 | 0.00 | 56 | 1016.7 |
| 20260906055203 | 27 | 0 | 0.0 | 0.0 | 0.00 | 0.03 | 0.00 | 56 | 1016.8 |
| 20260906055103 | 27 | 0 | 0.0 | 0.0 | 0.00 | 0.03 | 0.00 | 56 | 1016.6 |
| 20260906055003 | 27 | 0 | 0.0 | 0.0 | 0.00 | 0.03 | 0.00 | 57 | 1016.7 |
| 20260906054903 | 27 | 0 | 0.0 | 0.0 | 0.00 | 0.03 | 0.00 | 56 | 1016.7 |
| 20260906054803 | 27 | 0 | 0.0 | 0.0 | 0.00 | 0.03 | 0.00 | 56 | 1016.7 |
| 20260906054703 | 27 | 0 | 0.0 | 0.0 | 0.00 | 0.03 | 0.00 | 56 | 1016.6 |
| 20260906054603 | 27 | 0 | 0.0 | 0.0 | 0.00 | 0.03 | 0.00 | 55 | 1016.7 |
| 20260906054504 | 27 | 0 | 0.0 | 0.0 | 0.00 | 0.03 | 0.00 | 56 | 1016.6 |
| 20260906054403 | 27 | 0 | 0.0 | 0.0 | 0.00 | 0.03 | 0.00 | 57 | 1016.8 |
| 20260906054303 | 27 | 0 | 0.0 | 0.0 | 0.00 | 0.03 | 0.00 | 56 | 1016.6 |
| 20260906054203 | 27 | 0 | 0.0 | 0.0 | 0.00 | 0.03 | 0.00 | 56 | 1016.7 |
| 20260906054103 | 27 | 0 | 0.0 | 0.0 | 0.00 | 0.03 | 0.00 | 56 | 1016.9 |
| 20260906054003 | 27 | 0 | 0.0 | 0.0 | 0.00 | 0.03 | 0.00 | 56 | 1016.8 |
| 20260906053903 | 27 | 0 | 0.0 | 0.0 | 0.00 | 0.03 | 0.00 | 56 | 1016.6 |
| 20260906053803 | 27 | 0 | 0.0 | 0.0 | 0.00 | 0.03 | 0.00 | 56 | 1016.7 |
| 20260906053703 | 27 | 0 | 0.0 | 0.0 | 0.00 | 0.03 | 0.00 | 56 | 1016.8 |
| 20260906053603 | 27 | 0 | 0.0 | 0.0 | 0.00 | 0.03 | 0.00 | 57 | 1016.6 |
| 20260906053503 | 26 | 0 | 0.0 | 0.0 | 0.00 | 0.03 | 0.00 | 57 | 1016.7 |
| 20260906053403 | 26 | 0 | 0.0 | 0.0 | 0.00 | 0.03 | 0.00 | 57 | 1016.7 |
| 20260906053303 | 26 | 0 | 0.0 | 0.0 | 0.00 | 0.03 | 0.00 | 57 | 1016.9 |
| 20260906053203 | 26 | 0 | 0.0 | 0.0 | 0.00 | 0.03 | 0.00 | 57 | 1016.6 |
| 20260906053103 | 26 | 0 | 0.0 | 0.0 | 0.00 | 0.03 | 0.00 | 58 | 1016.8 |
| 20260906053003 | 26 | 0 | 0.0 | 0.0 | 0.00 | 0.03 | 0.00 | 58 | 1016.7 |
| 20260906052903 | 26 | 0 | 0.0 | 0.0 | 0.00 | 0.03 | 0.00 | 58 | 1016.7 |
| 20260906052803 | 26 | 0 | 0.0 | 0.0 | 0.00 | 0.03 | 0.00 | 57 | 1016.7 |
| 20260906052703 | 26 | 0 | 0.0 | 0.0 | 0.00 | 0.03 | 0.00 | 57 | 1016.8 |
| 20260906052603 | 26 | 0 | 0.0 | 0.0 | 0.00 | 0.03 | 0.00 | 57 | 1016.8 |
| 20260906052503 | 26 | 0 | 0.0 | 0.0 | 0.00 | 0.03 | 0.00 | 57 | 1016.6 |
| 20260906052403 | 26 | 0 | 0.0 | 0.0 | 0.00 | 0.03 | 0.00 | 58 | 1016.8 |
| 20260906052305 | 25 | 0 | 0.0 | 0.0 | 0.00 | 0.03 | 0.00 | 59 | 1016.8 |
| 20260906052203 | 25 | 0 | 0.0 | 0.0 | 0.00 | 0.03 | 0.00 | 59 | 1016.6 |
| 20260906052103 | 25 | 0 | 0.0 | 0.0 | 0.00 | 0.03 | 0.00 | 59 | 1016.6 |
| 20260906052003 | 25 | 0 | 0.0 | 0.0 | 0.00 | 0.03 | 0.00 | 59 | 1016.7 |
| 20260906051903 | 25 | 0 | 0.0 | 0.0 | 0.00 | 0.03 | 0.00 | 60 | 1016.7 |
| 20260906051803 | 25 | 0 | 0.0 | 0.0 | 0.00 | 0.03 | 0.00 | 60 | 1016.5 |
| 20260906051703 | 25 | 0 | 0.0 | 0.0 | 0.00 | 0.03 | 0.00 | 60 | 1016.6 |
| 20260906051603 | 25 | 0 | 0.0 | 0.0 | 0.00 | 0.03 | 0.00 | 61 | 1016.6 |
| 20260906051503 | 25 | 0 | 0.0 | 0.0 | 0.00 | 0.03 | 0.00 | 60 | 1016.7 |
| 20260906051403 | 25 | 0 | 0.0 | 0.0 | 0.00 | 0.03 | 0.00 | 60 | 1016.7 |
| 20260906051303 | 25 | 0 | 0.0 | 0.0 | 0.00 | 0.03 | 0.00 | 60 | 1016.7 |
| 20260906051203 | 25 | 0 | 0.0 | 0.0 | 0.00 | 0.03 | 0.00 | 61 | 1016.5 |
| 20260906051103 | 24 | 0 | 0.0 | 0.0 | 0.00 | 0.03 | 0.00 | 62 | 1016.7 |
| 20260906051003 | 24 | 0 | 0.0 | 0.0 | 0.00 | 0.03 | 0.00 | 61 | 1016.6 |
| 20260906050903 | 24 | 0 | 0.0 | 0.0 | 0.00 | 0.03 | 0.00 | 62 | 1016.5 |
| 20260906050803 | 24 | 0 | 0.0 | 0.0 | 0.00 | 0.03 | 0.00 | 62 | 1016.3 |
| 20260906050703 | 24 | 0 | 0.0 | 0.0 | 0.00 | 0.03 | 0.00 | 62 | 1016.6 |
| 20260906050603 | 24 | 0 | 0.0 | 0.0 | 0.00 | 0.03 | 0.00 | 62 | 1016.7 |
| 20260906050503 | 25 | 0 | 0.0 | 0.0 | 0.00 | 0.03 | 0.00 | 62 | 1016.6 |
| 20260906050403 | 25 | 0 | 0.0 | 0.0 | 0.00 | 0.03 | 0.00 | 62 | 1016.5 |
| 20260906050303 | 25 | 0 | 0.0 | 0.0 | 0.00 | 0.03 | 0.00 | 62 | 1016.7 |
| 20260906050203 | 25 | 0 | 0.0 | 0.0 | 0.00 | 0.03 | 0.00 | 62 | 1016.5 |
| 20260906050003 | 25 | 0 | 0.0 | 0.0 | 0.00 | 0.03 | 0.00 | 62 | 1016.5 |
| 20260906045903 | 24 | 0 | 0.0 | 0.0 | 0.00 | 0.03 | 0.00 | 64 | 1016.4 |
| 20260906045803 | 24 | 0 | 0.0 | 0.0 | 0.00 | 0.03 | 0.00 | 64 | 1016.6 |
| 20260906045703 | 24 | 0 | 0.0 | 0.0 | 0.00 | 0.03 | 0.00 | 64 | 1016.6 |
| 20260906045603 | 24 | 0 | 0.0 | 0.0 | 0.00 | 0.03 | 0.00 | 65 | 1016.5 |
| 20260906045503 | 24 | 0 | 0.0 | 0.0 | 0.00 | 0.03 | 0.00 | 65 | 1016.6 |
| 20260906045403 | 24 | 0 | 0.0 | 0.0 | 0.00 | 0.03 | 0.00 | 65 | 1016.5 |
| 20260906045305 | 24 | 0 | 0.0 | 0.0 | 0.00 | 0.03 | 0.00 | 64 | 1016.7 |
| 20260906045203 | 24 | 0 | 0.0 | 0.0 | 0.00 | 0.03 | 0.00 | 64 | 1016.7 |
| 20260906045103 | 24 | 0 | 0.0 | 0.0 | 0.00 | 0.03 | 0.00 | 65 | 1016.7 |
| 20260906045003 | 24 | 0 | 0.0 | 0.0 | 0.00 | 0.03 | 0.00 | 66 | 1016.6 |
| 20260906044903 | 24 | 0 | 0.0 | 0.0 | 0.00 | 0.03 | 0.00 | 65 | 1016.5 |
| 20260906044803 | 24 | 0 | 0.0 | 0.0 | 0.00 | 0.03 | 0.00 | 65 | 1016.4 |
| 20260906044703 | 24 | 0 | 0.0 | 0.0 | 0.00 | 0.03 | 0.00 | 66 | 1016.4 |
| 20260906044603 | 24 | 0 | 0.0 | 0.0 | 0.00 | 0.03 | 0.00 | 66 | 1016.5 |
| 20260906044503 | 24 | 0 | 0.0 | 0.0 | 0.00 | 0.03 | 0.00 | 66 | 1016.5 |
| 20260906044403 | 24 | 0 | 0.0 | 0.0 | 0.00 | 0.03 | 0.00 | 66 | 1016.6 |
| 20260906044303 | 24 | 0 | 0.0 | 0.0 | 0.00 | 0.03 | 0.00 | 65 | 1016.6 |
| 20260906044203 | 24 | 0 | 0.0 | 0.0 | 0.00 | 0.03 | 0.00 | 65 | 1016.5 |
| 20260906044103 | 24 | 0 | 0.0 | 0.0 | 0.00 | 0.03 | 0.00 | 65 | 1016.6 |
| 20260906044004 | 24 | 0 | 0.0 | 0.0 | 0.00 | 0.03 | 0.00 | 65 | 1016.6 |
| 20260906043903 | 24 | 0 | 0.0 | 0.0 | 0.00 | 0.03 | 0.00 | 65 | 1016.6 |
| 20260906043804 | 24 | 0 | 0.0 | 0.0 | 0.00 | 0.03 | 0.00 | 65 | 1016.6 |
| 20260906043703 | 24 | 0 | 0.0 | 0.0 | 0.00 | 0.03 | 0.00 | 66 | 1016.5 |
| 20260906043603 | 24 | 0 | 0.0 | 0.0 | 0.00 | 0.03 | 0.00 | 66 | 1016.5 |
| 20260906043503 | 24 | 0 | 0.0 | 0.0 | 0.00 | 0.03 | 0.00 | 66 | 1016.5 |
| 20260906043403 | 24 | 0 | 0.0 | 0.0 | 0.00 | 0.03 | 0.00 | 66 | 1016.4 |
| 20260906043303 | 24 | 0 | 0.0 | 0.0 | 0.00 | 0.03 | 0.00 | 65 | 1016.7 |
| 20260906043203 | 24 | 0 | 0.0 | 0.0 | 0.00 | 0.03 | 0.00 | 65 | 1016.6 |
| 20260906043103 | 24 | 0 | 0.0 | 0.0 | 0.00 | 0.03 | 0.00 | 65 | 1016.5 |
| 20260906043004 | 24 | 0 | 0.0 | 0.0 | 0.00 | 0.03 | 0.00 | 65 | 1016.6 |
| 20260906042904 | 24 | 0 | 0.0 | 0.0 | 0.00 | 0.03 | 0.00 | 64 | 1016.7 |
| 20260906042803 | 24 | 0 | 0.0 | 0.0 | 0.00 | 0.03 | 0.00 | 64 | 1016.8 |
| 20260906042703 | 24 | 0 | 0.0 | 0.0 | 0.00 | 0.03 | 0.00 | 64 | 1016.6 |
| 20260906042603 | 24 | 0 | 0.0 | 0.0 | 0.00 | 0.03 | 0.00 | 64 | 1016.6 |
| 20260906042503 | 25 | 0 | 0.0 | 0.0 | 0.00 | 0.03 | 0.00 | 63 | 1016.4 |
| 20260906042403 | 25 | 0 | 0.0 | 0.0 | 0.00 | 0.03 | 0.00 | 63 | 1016.5 |
| 20260906042306 | 25 | 0 | 0.0 | 0.0 | 0.00 | 0.03 | 0.00 | 63 | 1016.6 |
| 20260906042203 | 25 | 0 | 0.0 | 0.0 | 0.00 | 0.03 | 0.00 | 63 | 1016.4 |
| 20260906042104 | 25 | 0 | 0.0 | 0.0 | 0.00 | 0.03 | 0.00 | 63 | 1016.6 |
| 20260906042003 | 25 | 0 | 0.0 | 0.0 | 0.00 | 0.03 | 0.00 | 63 | 1016.6 |
| 20260906041903 | 25 | 0 | 0.0 | 0.0 | 0.00 | 0.03 | 0.00 | 63 | 1016.4 |
| 20260906041803 | 25 | 0 | 0.0 | 0.0 | 0.00 | 0.03 | 0.00 | 63 | 1016.4 |
| 20260906041703 | 25 | 0 | 0.0 | 0.0 | 0.00 | 0.03 | 0.00 | 63 | 1016.6 |
| 20260906041603 | 25 | 0 | 0.0 | 0.0 | 0.00 | 0.03 | 0.00 | 63 | 1016.6 |
| 20260906041503 | 25 | 0 | 0.0 | 0.0 | 0.00 | 0.03 | 0.00 | 63 | 1016.5 |
| 20260906041403 | 25 | 0 | 0.0 | 0.0 | 0.00 | 0.03 | 0.00 | 63 | 1016.5 |
| 20260906041303 | 25 | 0 | 0.0 | 0.0 | 0.00 | 0.03 | 0.00 | 63 | 1016.5 |
| 20260906041203 | 24 | 0 | 0.0 | 0.0 | 0.00 | 0.03 | 0.00 | 63 | 1016.6 |
| 20260906041103 | 24 | 0 | 0.0 | 0.0 | 0.00 | 0.03 | 0.00 | 63 | 1016.5 |
| 20260906041003 | 25 | 0 | 0.0 | 0.0 | 0.00 | 0.03 | 0.00 | 62 | 1016.5 |
| 20260906040903 | 25 | 0 | 0.0 | 0.0 | 0.00 | 0.03 | 0.00 | 63 | 1016.4 |
| 20260906040803 | 25 | 0 | 0.0 | 0.0 | 0.00 | 0.03 | 0.00 | 63 | 1016.5 |
| 20260906040703 | 25 | 0 | 0.0 | 0.0 | 0.00 | 0.03 | 0.00 | 62 | 1016.5 |
| 20260906040603 | 25 | 0 | 0.0 | 0.0 | 0.00 | 0.03 | 0.00 | 62 | 1016.5 |
| 20260906040503 | 24 | 0 | 0.0 | 0.0 | 0.00 | 0.03 | 0.00 | 63 | 1016.4 |
| 20260906040403 | 24 | 0 | 0.0 | 0.0 | 0.00 | 0.03 | 0.00 | 63 | 1016.2 |
| 20260906040303 | 24 | 0 | 0.0 | 0.0 | 0.00 | 0.03 | 0.00 | 63 | 1016.5 |
| 20260906040203 | 24 | 0 | 0.0 | 0.0 | 0.00 | 0.03 | 0.00 | 63 | 1016.4 |
| 20260906040103 | 24 | 0 | 0.0 | 0.0 | 0.00 | 0.03 | 0.00 | 62 | 1016.5 |
| 20260906040004 | 24 | 0 | 0.0 | 0.0 | 0.00 | 0.03 | 0.00 | 62 | 1016.3 |
| 20260906035903 | 25 | 0 | 0.0 | 0.0 | 0.00 | 0.03 | 0.00 | 62 | 1016.5 |
| 20260906035803 | 25 | 0 | 0.0 | 0.0 | 0.00 | 0.03 | 0.00 | 62 | 1016.4 |
| 20260906035703 | 25 | 0 | 0.0 | 0.0 | 0.00 | 0.03 | 0.00 | 62 | 1016.6 |
| 20260906035603 | 25 | 0 | 0.0 | 0.0 | 0.00 | 0.03 | 0.00 | 62 | 1016.5 |
| 20260906035503 | 25 | 0 | 0.0 | 0.0 | 0.00 | 0.03 | 0.00 | 62 | 1016.4 |
| 20260906035403 | 25 | 0 | 0.0 | 0.0 | 0.00 | 0.03 | 0.00 | 61 | 1016.5 |
| 20260906035306 | 25 | 0 | 0.0 | 0.0 | 0.00 | 0.03 | 0.00 | 62 | 1016.3 |
| 20260906035204 | 25 | 0 | 0.0 | 0.0 | 0.00 | 0.03 | 0.00 | 62 | 1016.4 |
| 20260906035103 | 25 | 0 | 0.0 | 0.0 | 0.00 | 0.03 | 0.00 | 62 | 1016.2 |
| 20260906035003 | 25 | 0 | 0.0 | 0.0 | 0.00 | 0.03 | 0.00 | 62 | 1016.6 |
| 20260906034903 | 25 | 0 | 0.0 | 0.0 | 0.00 | 0.03 | 0.00 | 63 | 1016.3 |
| 20260906034803 | 25 | 0 | 0.0 | 0.0 | 0.00 | 0.03 | 0.00 | 62 | 1016.4 |
| 20260906034703 | 25 | 0 | 0.0 | 0.0 | 0.00 | 0.03 | 0.00 | 62 | 1016.4 |
| 20260906034603 | 25 | 0 | 0.0 | 0.0 | 0.00 | 0.03 | 0.00 | 62 | 1016.3 |
| 20260906034503 | 25 | 0 | 0.0 | 0.0 | 0.00 | 0.03 | 0.00 | 62 | 1016.6 |
| 20260906034403 | 25 | 0 | 0.0 | 0.0 | 0.00 | 0.03 | 0.00 | 62 | 1016.3 |
| 20260906034303 | 25 | 0 | 0.0 | 0.0 | 0.00 | 0.03 | 0.00 | 62 | 1016.4 |
| 20260906034203 | 25 | 0 | 0.0 | 0.0 | 0.00 | 0.03 | 0.00 | 62 | 1016.5 |
| 20260906034103 | 25 | 0 | 0.0 | 0.0 | 0.00 | 0.03 | 0.00 | 62 | 1016.4 |
| 20260906034003 | 25 | 0 | 0.0 | 0.0 | 0.00 | 0.03 | 0.00 | 62 | 1016.3 |
| 20260906033903 | 25 | 0 | 0.0 | 0.0 | 0.00 | 0.03 | 0.00 | 62 | 1016.2 |
| 20260906033803 | 25 | 0 | 0.0 | 0.0 | 0.00 | 0.03 | 0.00 | 62 | 1016.5 |
| 20260906033703 | 25 | 0 | 0.0 | 0.0 | 0.00 | 0.03 | 0.00 | 62 | 1016.2 |
| 20260906033603 | 25 | 0 | 0.0 | 0.0 | 0.00 | 0.03 | 0.00 | 62 | 1016.4 |
| 20260906033503 | 25 | 0 | 0.0 | 0.0 | 0.00 | 0.03 | 0.00 | 62 | 1016.3 |
| 20260906033403 | 25 | 0 | 0.0 | 0.0 | 0.00 | 0.03 | 0.00 | 62 | 1016.2 |
| 20260906033303 | 25 | 0 | 0.0 | 0.0 | 0.00 | 0.03 | 0.00 | 62 | 1016.2 |
| 20260906033203 | 24 | 0 | 0.0 | 0.0 | 0.00 | 0.03 | 0.00 | 63 | 1016.3 |
| 20260906033103 | 24 | 0 | 0.0 | 0.0 | 0.00 | 0.03 | 0.00 | 63 | 1016.2 |
| 20260906033003 | 24 | 0 | 0.0 | 0.0 | 0.00 | 0.03 | 0.00 | 64 | 1016.4 |
| 20260906032903 | 24 | 0 | 0.0 | 0.0 | 0.00 | 0.03 | 0.00 | 63 | 1016.2 |
| 20260906032803 | 24 | 0 | 0.0 | 0.0 | 0.00 | 0.03 | 0.00 | 62 | 1016.4 |
| 20260906032703 | 24 | 0 | 0.0 | 0.0 | 0.00 | 0.03 | 0.00 | 62 | 1016.3 |
| 20260906032603 | 24 | 0 | 0.0 | 0.0 | 0.00 | 0.03 | 0.00 | 62 | 1016.3 |
| 20260906032503 | 25 | 0 | 0.0 | 0.0 | 0.00 | 0.03 | 0.00 | 62 | 1016.2 |
| 20260906032403 | 25 | 0 | 0.0 | 0.0 | 0.00 | 0.03 | 0.00 | 62 | 1016.2 |
| 20260906032306 | 25 | 0 | 0.0 | 0.0 | 0.00 | 0.03 | 0.00 | 62 | 1016.4 |
| 20260906032203 | 25 | 0 | 0.0 | 0.0 | 0.00 | 0.03 | 0.00 | 62 | 1016.3 |
| 20260906032103 | 25 | 0 | 0.0 | 0.0 | 0.00 | 0.03 | 0.00 | 62 | 1016.3 |
| 20260906032003 | 25 | 0 | 0.0 | 0.0 | 0.00 | 0.03 | 0.00 | 62 | 1016.4 |
| 20260906031903 | 25 | 0 | 0.0 | 0.0 | 0.00 | 0.03 | 0.00 | 62 | 1016.5 |
| 20260906031803 | 25 | 0 | 0.0 | 0.0 | 0.00 | 0.03 | 0.00 | 62 | 1016.3 |
| 20260906031703 | 25 | 0 | 0.0 | 0.0 | 0.00 | 0.03 | 0.00 | 62 | 1016.3 |
| 20260906031603 | 25 | 0 | 0.0 | 0.0 | 0.00 | 0.03 | 0.00 | 62 | 1016.3 |
| 20260906031503 | 25 | 0 | 0.0 | 0.0 | 0.00 | 0.03 | 0.00 | 61 | 1016.2 |
| 20260906031403 | 25 | 0 | 0.0 | 0.0 | 0.00 | 0.03 | 0.00 | 61 | 1016.1 |
| 20260906031305 | 25 | 0 | 0.0 | 0.0 | 0.00 | 0.03 | 0.00 | 61 | 1016.1 |
| 20260906031203 | 25 | 0 | 0.0 | 0.0 | 0.00 | 0.03 | 0.00 | 61 | 1016.3 |
| 20260906031105 | 25 | 0 | 0.0 | 0.0 | 0.00 | 0.03 | 0.00 | 61 | 1016.2 |
| 20260906031003 | 25 | 0 | 0.0 | 0.0 | 0.00 | 0.03 | 0.00 | 61 | 1016.2 |
| 20260906030904 | 25 | 0 | 0.0 | 0.0 | 0.00 | 0.03 | 0.00 | 60 | 1016.3 |
| 20260906030803 | 25 | 0 | 0.0 | 0.0 | 0.00 | 0.03 | 0.00 | 60 | 1016.2 |
| 20260906030703 | 25 | 0 | 0.0 | 0.0 | 0.00 | 0.03 | 0.00 | 60 | 1016.3 |
| 20260906030603 | 25 | 0 | 0.0 | 0.0 | 0.00 | 0.03 | 0.00 | 60 | 1016.3 |
| 20260906030503 | 25 | 0 | 0.0 | 0.0 | 0.00 | 0.03 | 0.00 | 60 | 1016.2 |
| 20260906030403 | 25 | 0 | 0.0 | 0.0 | 0.00 | 0.03 | 0.00 | 60 | 1016.2 |
| 20260906030303 | 25 | 0 | 0.0 | 0.0 | 0.00 | 0.03 | 0.00 | 60 | 1016.2 |
| 20260906030203 | 25 | 0 | 0.0 | 0.0 | 0.00 | 0.03 | 0.00 | 60 | 1016.2 |
| 20260906030004 | 25 | 0 | 0.0 | 0.0 | 0.00 | 0.03 | 0.00 | 60 | 1016.1 |
| 20260906025903 | 25 | 0 | 0.0 | 0.0 | 0.00 | 0.03 | 0.00 | 60 | 1016.2 |
| 20260906025803 | 25 | 0 | 0.0 | 0.0 | 0.00 | 0.03 | 0.00 | 61 | 1016.1 |
| 20260906025703 | 25 | 0 | 0.0 | 0.0 | 0.00 | 0.03 | 0.00 | 61 | 1016.4 |
| 20260906025603 | 25 | 0 | 0.0 | 0.0 | 0.00 | 0.03 | 0.00 | 61 | 1016.3 |
| 20260906025503 | 25 | 0 | 0.0 | 0.0 | 0.00 | 0.03 | 0.00 | 61 | 1016.2 |
| 20260906025403 | 25 | 0 | 0.0 | 0.0 | 0.00 | 0.03 | 0.00 | 61 | 1016.4 |
| 20260906025306 | 25 | 0 | 0.0 | 0.0 | 0.00 | 0.03 | 0.00 | 61 | 1016.2 |
| 20260906025203 | 25 | 0 | 0.0 | 0.0 | 0.00 | 0.03 | 0.00 | 61 | 1016.1 |
| 20260906025103 | 25 | 0 | 0.0 | 0.0 | 0.00 | 0.03 | 0.00 | 61 | 1016.2 |
| 20260906025003 | 25 | 0 | 0.0 | 0.0 | 0.00 | 0.03 | 0.00 | 61 | 1016.2 |
| 20260906024903 | 25 | 0 | 0.0 | 0.0 | 0.00 | 0.03 | 0.00 | 61 | 1016.3 |
| 20260906024803 | 25 | 0 | 0.0 | 0.0 | 0.00 | 0.03 | 0.00 | 61 | 1016.3 |
| 20260906024703 | 25 | 0 | 0.0 | 0.0 | 0.00 | 0.03 | 0.00 | 61 | 1016.3 |
| 20260906024603 | 25 | 0 | 0.0 | 0.0 | 0.00 | 0.03 | 0.00 | 61 | 1016.1 |
| 20260906024503 | 25 | 0 | 0.0 | 0.0 | 0.00 | 0.03 | 0.00 | 61 | 1016.3 |
| 20260906024403 | 25 | 0 | 0.0 | 0.0 | 0.00 | 0.03 | 0.00 | 61 | 1016.3 |
| 20260906024303 | 25 | 0 | 0.0 | 0.0 | 0.00 | 0.03 | 0.00 | 62 | 1016.3 |
| 20260906024203 | 25 | 0 | 0.0 | 0.0 | 0.00 | 0.03 | 0.00 | 62 | 1016.1 |
| 20260906024103 | 25 | 0 | 0.0 | 0.0 | 0.00 | 0.03 | 0.00 | 62 | 1016.4 |
| 20260906024003 | 25 | 0 | 0.0 | 0.0 | 0.00 | 0.03 | 0.00 | 62 | 1016.3 |
| 20260906023903 | 25 | 0 | 0.0 | 0.0 | 0.00 | 0.03 | 0.00 | 62 | 1016.1 |
| 20260906023803 | 25 | 0 | 0.0 | 0.0 | 0.00 | 0.03 | 0.00 | 62 | 1016.0 |
| 20260906023703 | 25 | 0 | 0.0 | 0.0 | 0.00 | 0.03 | 0.00 | 62 | 1016.1 |
| 20260906023603 | 25 | 0 | 0.0 | 0.0 | 0.00 | 0.03 | 0.00 | 62 | 1016.2 |
| 20260906023503 | 25 | 0 | 0.0 | 0.0 | 0.00 | 0.03 | 0.00 | 61 | 1016.3 |
| 20260906023403 | 25 | 0 | 0.0 | 0.0 | 0.00 | 0.03 | 0.00 | 62 | 1016.3 |
| 20260906023303 | 25 | 0 | 0.0 | 0.0 | 0.00 | 0.03 | 0.00 | 62 | 1016.3 |
| 20260906023203 | 25 | 0 | 0.0 | 0.0 | 0.00 | 0.03 | 0.00 | 62 | 1016.1 |
| 20260906023103 | 25 | 0 | 0.0 | 0.0 | 0.00 | 0.03 | 0.00 | 62 | 1016.4 |
| 20260906023003 | 25 | 0 | 0.0 | 0.0 | 0.00 | 0.03 | 0.00 | 62 | 1016.3 |
| 20260906022903 | 25 | 0 | 0.0 | 0.0 | 0.00 | 0.03 | 0.00 | 62 | 1016.0 |
| 20260906022803 | 25 | 0 | 0.0 | 0.0 | 0.00 | 0.03 | 0.00 | 62 | 1016.1 |
| 20260906022703 | 25 | 0 | 0.0 | 0.0 | 0.00 | 0.03 | 0.00 | 62 | 1016.3 |
| 20260906022603 | 25 | 0 | 0.0 | 0.0 | 0.00 | 0.03 | 0.00 | 62 | 1016.3 |
| 20260906022503 | 25 | 0 | 0.0 | 0.0 | 0.00 | 0.03 | 0.00 | 62 | 1016.3 |
| 20260906022403 | 25 | 0 | 0.0 | 0.0 | 0.00 | 0.03 | 0.00 | 62 | 1016.2 |
| 20260906022306 | 25 | 0 | 0.0 | 0.0 | 0.00 | 0.03 | 0.00 | 62 | 1016.3 |
| 20260906022203 | 25 | 0 | 0.0 | 0.0 | 0.00 | 0.03 | 0.00 | 63 | 1016.4 |
| 20260906022103 | 25 | 0 | 0.0 | 0.0 | 0.00 | 0.03 | 0.00 | 63 | 1016.3 |
| 20260906022003 | 25 | 0 | 0.0 | 0.0 | 0.00 | 0.03 | 0.00 | 63 | 1016.3 |
| 20260906021903 | 25 | 0 | 0.0 | 0.0 | 0.00 | 0.03 | 0.00 | 63 | 1016.3 |
| 20260906021803 | 25 | 0 | 0.0 | 0.0 | 0.00 | 0.03 | 0.00 | 62 | 1016.3 |
| 20260906021703 | 25 | 0 | 0.0 | 0.0 | 0.00 | 0.03 | 0.00 | 62 | 1016.3 |
| 20260906021603 | 25 | 0 | 0.0 | 0.0 | 0.00 | 0.03 | 0.00 | 62 | 1016.3 |
| 20260906021503 | 25 | 0 | 0.0 | 0.0 | 0.00 | 0.03 | 0.00 | 63 | 1016.3 |
| 20260906021403 | 25 | 0 | 0.0 | 0.0 | 0.00 | 0.03 | 0.00 | 63 | 1016.3 |
| 20260906021303 | 25 | 0 | 0.0 | 0.0 | 0.00 | 0.03 | 0.00 | 63 | 1016.3 |
| 20260906021203 | 25 | 0 | 0.0 | 0.0 | 0.00 | 0.03 | 0.00 | 63 | 1016.5 |
| 20260906021103 | 25 | 0 | 0.0 | 0.0 | 0.00 | 0.03 | 0.00 | 62 | 1016.4 |
| 20260906021003 | 25 | 0 | 0.0 | 0.0 | 0.00 | 0.03 | 0.00 | 63 | 1016.4 |
| 20260906020903 | 25 | 0 | 0.0 | 0.0 | 0.00 | 0.03 | 0.00 | 63 | 1016.3 |
| 20260906020803 | 25 | 0 | 0.0 | 0.0 | 0.00 | 0.03 | 0.00 | 63 | 1016.3 |
| 20260906020703 | 25 | 0 | 0.0 | 0.0 | 0.00 | 0.03 | 0.00 | 63 | 1016.3 |
| 20260906020604 | 25 | 0 | 0.0 | 0.0 | 0.00 | 0.03 | 0.00 | 63 | 1016.6 |
| 20260906020504 | 25 | 0 | 0.0 | 0.0 | 0.00 | 0.03 | 0.00 | 62 | 1016.2 |
| 20260906020403 | 25 | 0 | 0.0 | 0.0 | 0.00 | 0.03 | 0.00 | 62 | 1016.6 |
| 20260906020303 | 25 | 0 | 0.0 | 0.0 | 0.00 | 0.03 | 0.00 | 62 | 1016.4 |
| 20260906020203 | 25 | 0 | 0.0 | 0.0 | 0.00 | 0.03 | 0.00 | 62 | 1016.6 |
| 20260906020103 | 25 | 0 | 0.0 | 0.0 | 0.00 | 0.03 | 0.00 | 62 | 1016.3 |
| 20260906020004 | 25 | 0 | 0.0 | 0.0 | 0.00 | 0.03 | 0.00 | 62 | 1016.5 |
| 20260906015905 | 25 | 0 | 0.0 | 0.0 | 0.00 | 0.03 | 0.00 | 61 | 1016.3 |
| 20260906015804 | 26 | 0 | 0.0 | 0.0 | 0.00 | 0.03 | 0.00 | 61 | 1016.4 |
| 20260906015703 | 25 | 0 | 0.0 | 0.0 | 0.00 | 0.03 | 0.00 | 60 | 1016.4 |
| 20260906015603 | 25 | 0 | 0.0 | 0.0 | 0.00 | 0.03 | 0.00 | 62 | 1016.6 |
| 20260906015503 | 25 | 0 | 0.0 | 0.0 | 0.00 | 0.03 | 0.00 | 63 | 1016.5 |
| 20260906015403 | 25 | 0 | 0.0 | 0.0 | 0.00 | 0.03 | 0.00 | 63 | 1016.4 |
| 20260906015306 | 25 | 0 | 0.0 | 0.0 | 0.00 | 0.03 | 0.00 | 63 | 1016.4 |
| 20260906015203 | 25 | 0 | 0.0 | 0.0 | 0.00 | 0.03 | 0.00 | 63 | 1016.3 |
| 20260906015104 | 25 | 0 | 0.0 | 0.0 | 0.00 | 0.03 | 0.00 | 62 | 1016.4 |
| 20260906015004 | 25 | 0 | 0.0 | 0.0 | 0.00 | 0.03 | 0.00 | 62 | 1016.3 |
| 20260906014903 | 26 | 0 | 0.0 | 0.0 | 0.00 | 0.03 | 0.00 | 61 | 1016.5 |
| 20260906014803 | 26 | 0 | 0.0 | 0.0 | 0.00 | 0.03 | 0.00 | 61 | 1016.4 |
| 20260906014703 | 25 | 0 | 0.0 | 0.0 | 0.00 | 0.03 | 0.00 | 62 | 1016.5 |
| 20260906014603 | 25 | 0 | 0.0 | 0.0 | 0.00 | 0.03 | 0.00 | 62 | 1016.6 |
| 20260906014503 | 25 | 0 | 0.0 | 0.0 | 0.00 | 0.03 | 0.00 | 62 | 1016.5 |
| 20260906014403 | 25 | 0 | 0.0 | 0.0 | 0.00 | 0.03 | 0.00 | 63 | 1016.4 |
| 20260906014303 | 25 | 0 | 0.0 | 0.0 | 0.00 | 0.03 | 0.00 | 63 | 1016.5 |
| 20260906014204 | 25 | 0 | 0.0 | 0.0 | 0.00 | 0.03 | 0.00 | 63 | 1016.5 |
| 20260906014103 | 25 | 0 | 0.0 | 0.0 | 0.00 | 0.03 | 0.00 | 63 | 1016.5 |
| 20260906014003 | 25 | 0 | 0.0 | 0.0 | 0.00 | 0.03 | 0.00 | 63 | 1016.5 |
| 20260906013903 | 25 | 0 | 0.0 | 0.0 | 0.00 | 0.03 | 0.00 | 62 | 1016.4 |
| 20260906013803 | 25 | 0 | 0.0 | 0.0 | 0.00 | 0.03 | 0.00 | 62 | 1016.5 |
| 20260906013703 | 25 | 0 | 0.0 | 0.0 | 0.00 | 0.03 | 0.00 | 62 | 1016.2 |
| 20260906013603 | 25 | 0 | 0.0 | 0.0 | 0.00 | 0.03 | 0.00 | 61 | 1016.5 |
| 20260906013503 | 25 | 0 | 0.0 | 0.0 | 0.00 | 0.03 | 0.00 | 61 | 1016.2 |
| 20260906013403 | 25 | 0 | 0.0 | 0.0 | 0.00 | 0.03 | 0.00 | 62 | 1016.6 |
| 20260906013303 | 25 | 0 | 0.0 | 0.0 | 0.00 | 0.03 | 0.00 | 62 | 1016.6 |
| 20260906013203 | 25 | 0 | 0.0 | 0.0 | 0.00 | 0.03 | 0.00 | 62 | 1016.6 |
| 20260906013103 | 25 | 0 | 0.0 | 0.0 | 0.00 | 0.03 | 0.00 | 62 | 1016.6 |
| 20260906013003 | 25 | 0 | 0.0 | 0.0 | 0.00 | 0.03 | 0.00 | 62 | 1016.5 |
| 20260906012903 | 25 | 0 | 0.0 | 0.0 | 0.00 | 0.03 | 0.00 | 62 | 1016.4 |
| 20260906012803 | 25 | 0 | 0.0 | 0.0 | 0.00 | 0.03 | 0.00 | 63 | 1016.5 |
| 20260906012703 | 25 | 0 | 0.0 | 0.0 | 0.00 | 0.03 | 0.00 | 62 | 1016.4 |
| 20260906012603 | 25 | 0 | 0.0 | 0.0 | 0.00 | 0.03 | 0.00 | 62 | 1016.6 |
| 20260906012503 | 25 | 0 | 0.0 | 0.0 | 0.00 | 0.03 | 0.00 | 62 | 1016.7 |
| 20260906012403 | 25 | 0 | 0.0 | 0.0 | 0.00 | 0.03 | 0.00 | 62 | 1016.7 |
| 20260906012306 | 25 | 0 | 0.0 | 0.0 | 0.00 | 0.03 | 0.00 | 62 | 1016.6 |
| 20260906012203 | 25 | 0 | 0.0 | 0.0 | 0.00 | 0.03 | 0.00 | 62 | 1016.5 |
| 20260906012103 | 25 | 0 | 0.0 | 0.0 | 0.00 | 0.03 | 0.00 | 62 | 1016.6 |
| 20260906012003 | 25 | 0 | 0.0 | 0.0 | 0.00 | 0.03 | 0.00 | 61 | 1016.7 |
| 20260906011903 | 25 | 0 | 0.0 | 0.0 | 0.00 | 0.03 | 0.00 | 61 | 1016.7 |
| 20260906011803 | 25 | 0 | 0.0 | 0.0 | 0.00 | 0.03 | 0.00 | 61 | 1016.7 |
| 20260906011703 | 25 | 0 | 0.0 | 0.0 | 0.00 | 0.03 | 0.00 | 61 | 1016.7 |
| 20260906011603 | 25 | 0 | 0.0 | 0.0 | 0.00 | 0.03 | 0.00 | 61 | 1016.5 |
| 20260906011503 | 26 | 0 | 0.0 | 0.0 | 0.00 | 0.03 | 0.00 | 61 | 1016.6 |
| 20260906011403 | 26 | 0 | 0.0 | 0.0 | 0.00 | 0.03 | 0.00 | 60 | 1016.6 |
| 20260906011303 | 26 | 0 | 0.0 | 0.0 | 0.00 | 0.03 | 0.00 | 60 | 1016.6 |
| 20260906011203 | 26 | 0 | 0.0 | 0.0 | 0.00 | 0.03 | 0.00 | 60 | 1016.7 |
| 20260906011103 | 26 | 0 | 0.0 | 0.0 | 0.00 | 0.03 | 0.00 | 60 | 1016.4 |
| 20260906011003 | 26 | 0 | 0.0 | 0.0 | 0.00 | 0.03 | 0.00 | 60 | 1016.6 |
| 20260906010903 | 26 | 0 | 0.0 | 0.0 | 0.00 | 0.03 | 0.00 | 59 | 1016.8 |
| 20260906010803 | 26 | 0 | 0.0 | 0.0 | 0.00 | 0.03 | 0.00 | 59 | 1016.5 |
| 20260906010703 | 26 | 0 | 0.0 | 0.0 | 0.00 | 0.03 | 0.00 | 60 | 1016.6 |
| 20260906010603 | 26 | 0 | 0.0 | 0.0 | 0.00 | 0.03 | 0.00 | 60 | 1016.7 |
| 20260906010503 | 26 | 0 | 0.0 | 0.0 | 0.00 | 0.03 | 0.00 | 60 | 1016.4 |
| 20260906010403 | 26 | 0 | 0.0 | 0.0 | 0.00 | 0.03 | 0.00 | 60 | 1016.5 |
| 20260906010303 | 25 | 0 | 0.0 | 0.0 | 0.00 | 0.03 | 0.00 | 61 | 1016.7 |
| 20260906010203 | 25 | 0 | 0.0 | 0.0 | 0.00 | 0.03 | 0.00 | 61 | 1016.7 |
| 20260906010103 | 25 | 0 | 0.0 | 0.0 | 0.00 | 0.03 | 0.00 | 61 | 1016.7 |
| 20260906010003 | 26 | 0 | 0.0 | 0.0 | 0.00 | 0.03 | 0.00 | 61 | 1016.5 |
| 20260906005903 | 26 | 0 | 0.0 | 0.0 | 0.00 | 0.03 | 0.00 | 61 | 1016.7 |
| 20260906005803 | 26 | 0 | 0.0 | 0.0 | 0.00 | 0.03 | 0.00 | 60 | 1016.7 |
| 20260906005703 | 26 | 0 | 0.0 | 0.0 | 0.00 | 0.03 | 0.00 | 60 | 1016.7 |
| 20260906005603 | 26 | 0 | 0.0 | 0.0 | 0.00 | 0.03 | 0.00 | 60 | 1016.5 |
| 20260906005503 | 26 | 0 | 0.0 | 0.0 | 0.00 | 0.03 | 0.00 | 60 | 1016.7 |
| 20260906005404 | 26 | 0 | 0.0 | 0.0 | 0.00 | 0.03 | 0.00 | 60 | 1016.7 |
| 20260906005306 | 26 | 0 | 0.0 | 0.0 | 0.00 | 0.03 | 0.00 | 61 | 1016.7 |
| 20260906005203 | 26 | 0 | 0.0 | 0.0 | 0.00 | 0.03 | 0.00 | 61 | 1016.6 |
| 20260906005103 | 26 | 0 | 0.0 | 0.0 | 0.00 | 0.03 | 0.00 | 61 | 1016.7 |
| 20260906005004 | 26 | 0 | 0.0 | 0.0 | 0.00 | 0.03 | 0.00 | 60 | 1016.7 |
| 20260906004903 | 26 | 0 | 0.0 | 0.0 | 0.00 | 0.03 | 0.00 | 61 | 1016.8 |
| 20260906004803 | 26 | 0 | 0.0 | 0.0 | 0.00 | 0.03 | 0.00 | 61 | 1016.6 |
| 20260906004704 | 26 | 0 | 0.0 | 0.0 | 0.00 | 0.03 | 0.00 | 62 | 1016.6 |
| 20260906004603 | 26 | 0 | 0.0 | 0.0 | 0.00 | 0.03 | 0.00 | 62 | 1016.7 |
| 20260906004503 | 26 | 0 | 0.0 | 0.0 | 0.00 | 0.03 | 0.00 | 62 | 1016.6 |
| 20260906004403 | 26 | 0 | 0.0 | 0.0 | 0.00 | 0.03 | 0.00 | 61 | 1016.7 |
| 20260906004303 | 26 | 0 | 0.0 | 0.0 | 0.00 | 0.03 | 0.00 | 62 | 1016.6 |
| 20260906004203 | 26 | 0 | 0.0 | 0.0 | 0.00 | 0.03 | 0.00 | 62 | 1016.7 |
| 20260906004104 | 26 | 0 | 0.0 | 0.0 | 0.00 | 0.03 | 0.00 | 62 | 1016.6 |
| 20260906004003 | 26 | 0 | 0.0 | 0.0 | 0.00 | 0.03 | 0.00 | 62 | 1016.6 |
| 20260906003903 | 26 | 0 | 0.0 | 0.0 | 0.00 | 0.03 | 0.00 | 62 | 1016.5 |
| 20260906003803 | 26 | 0 | 0.0 | 0.0 | 0.00 | 0.03 | 0.00 | 62 | 1016.2 |
| 20260906003703 | 26 | 0 | 0.0 | 0.0 | 0.00 | 0.03 | 0.00 | 62 | 1016.5 |
| 20260906003603 | 26 | 0 | 0.0 | 0.0 | 0.00 | 0.03 | 0.00 | 60 | 1016.6 |
| 20260906003503 | 26 | 0 | 0.0 | 0.0 | 0.00 | 0.03 | 0.00 | 62 | 1016.7 |
| 20260906003403 | 26 | 0 | 0.0 | 0.0 | 0.00 | 0.03 | 0.00 | 62 | 1016.4 |
| 20260906003303 | 26 | 0 | 0.0 | 0.0 | 0.00 | 0.03 | 0.00 | 61 | 1016.9 |
| 20260906003203 | 26 | 45 | 0.0 | 3.2 | 0.00 | 0.03 | 0.00 | 62 | 1016.6 |
| 20260906003103 | 26 | 54 | 0.0 | 3.2 | 0.00 | 0.03 | 0.00 | 62 | 1016.6 |
| 20260906003003 | 26 | 64 | 0.0 | 3.2 | 0.00 | 0.03 | 0.00 | 62 | 1016.7 |
| 20260906002903 | 26 | 67 | 0.0 | 3.2 | 0.00 | 0.03 | 0.00 | 62 | 1016.7 |
| 20260906002803 | 26 | 55 | 1.6 | 6.4 | 0.00 | 0.03 | 0.00 | 61 | 1016.5 |
| 20260906002703 | 26 | 46 | 1.6 | 6.4 | 0.00 | 0.03 | 0.00 | 61 | 1016.6 |
| 20260906002603 | 26 | 46 | 1.6 | 6.4 | 0.00 | 0.03 | 0.00 | 60 | 1016.7 |
| 20260906002503 | 27 | 46 | 1.6 | 6.4 | 0.00 | 0.03 | 0.00 | 59 | 1016.6 |
| 20260906002403 | 27 | 46 | 1.6 | 6.4 | 0.00 | 0.03 | 0.00 | 58 | 1016.6 |
| 20260906002306 | 27 | 46 | 1.6 | 6.4 | 0.00 | 0.03 | 0.00 | 58 | 1016.4 |
| 20260906002203 | 27 | 46 | 1.6 | 6.4 | 0.00 | 0.03 | 0.00 | 58 | 1016.4 |
| 20260906002103 | 27 | 45 | 1.6 | 6.4 | 0.00 | 0.03 | 0.00 | 59 | 1016.4 |
| 20260906002003 | 27 | 32 | 3.2 | 6.4 | 0.00 | 0.03 | 0.00 | 59 | 1016.5 |
| 20260906001903 | 27 | 32 | 3.2 | 6.4 | 0.00 | 0.03 | 0.00 | 59 | 1016.6 |
| 20260906001803 | 27 | 35 | 3.2 | 6.4 | 0.00 | 0.03 | 0.00 | 59 | 1016.7 |
| 20260906001703 | 27 | 37 | 3.2 | 6.4 | 0.00 | 0.03 | 0.00 | 59 | 1016.3 |
| 20260906001603 | 27 | 34 | 3.2 | 6.4 | 0.00 | 0.03 | 0.00 | 59 | 1016.8 |
| 20260906001503 | 27 | 33 | 3.2 | 6.4 | 0.00 | 0.03 | 0.00 | 59 | 1016.8 |
| 20260906001403 | 26 | 32 | 4.8 | 6.4 | 0.00 | 0.03 | 0.00 | 59 | 1016.5 |
| 20260906001303 | 26 | 30 | 4.8 | 6.4 | 0.00 | 0.03 | 0.00 | 59 | 1016.6 |
| 20260906001203 | 27 | 29 | 4.8 | 6.4 | 0.00 | 0.03 | 0.00 | 59 | 1016.5 |
| 20260906001103 | 27 | 27 | 4.8 | 6.4 | 0.00 | 0.03 | 0.00 | 59 | 1016.3 |
| 20260906001003 | 27 | 30 | 4.8 | 6.4 | 0.00 | 0.03 | 0.00 | 59 | 1016.5 |
| 20260906000903 | 27 | 31 | 3.2 | 6.4 | 0.00 | 0.03 | 0.00 | 59 | 1016.7 |
| 20260906000803 | 27 | 28 | 3.2 | 6.4 | 0.00 | 0.03 | 0.00 | 59 | 1016.5 |
| 20260906000703 | 27 | 29 | 3.2 | 3.2 | 0.00 | 0.03 | 0.00 | 59 | 1016.4 |
| 20260906000603 | 27 | 31 | 3.2 | 3.2 | 0.00 | 0.03 | 0.00 | 59 | 1016.5 |
| 20260906000503 | 27 | 32 | 3.2 | 3.2 | 0.00 | 0.03 | 0.00 | 59 | 1016.5 |
| 20260906000403 | 27 | 36 | 3.2 | 3.2 | 0.00 | 0.03 | 0.00 | 59 | 1016.6 |
| 20260906000304 | 27 | 38 | 3.2 | 3.2 | 0.00 | 0.03 | 0.00 | 59 | 1016.6 |
| 20260906000204 | 27 | 40 | 3.2 | 3.2 | 0.00 | 0.03 | 0.00 | 59 | 1016.4 |
| 20260906000103 | 27 | 41 | 3.2 | 3.2 | 0.00 | 0.03 | 0.00 | 59 | 1016.7 |
| 20260906000003 | 27 | 43 | 3.2 | 3.2 | 0.00 | 0.03 | 0.00 | 59 | 1016.7 |
| 20260905235903 | 27 | 43 | 3.2 | 3.2 | 0.00 | 0.03 | 0.00 | 59 | 1016.6 |
| 20260905235803 | 27 | 43 | 3.2 | 3.2 | 0.00 | 0.03 | 0.00 | 59 | 1016.6 |
| 20260905235703 | 27 | 39 | 3.2 | 3.2 | 0.00 | 0.03 | 0.00 | 59 | 1016.5 |
| 20260905235603 | 27 | 38 | 3.2 | 3.2 | 0.00 | 0.03 | 0.00 | 59 | 1016.5 |
| 20260905235503 | 27 | 41 | 3.2 | 3.2 | 0.00 | 0.03 | 0.00 | 59 | 1016.6 |
| 20260905235403 | 27 | 38 | 3.2 | 3.2 | 0.00 | 0.03 | 0.00 | 59 | 1016.7 |
| 20260905235306 | 27 | 38 | 3.2 | 3.2 | 0.00 | 0.03 | 0.00 | 59 | 1016.5 |
| 20260905235203 | 27 | 38 | 3.2 | 3.2 | 0.00 | 0.03 | 0.00 | 59 | 1016.7 |
| 20260905235103 | 27 | 40 | 3.2 | 3.2 | 0.00 | 0.03 | 0.00 | 59 | 1016.5 |
| 20260905235003 | 27 | 38 | 3.2 | 3.2 | 0.00 | 0.03 | 0.00 | 59 | 1016.7 |
| 20260905234903 | 27 | 38 | 3.2 | 3.2 | 0.00 | 0.03 | 0.00 | 59 | 1016.5 |
| 20260905234803 | 27 | 37 | 3.2 | 3.2 | 0.00 | 0.03 | 0.00 | 59 | 1016.5 |
| 20260905234703 | 27 | 39 | 3.2 | 3.2 | 0.00 | 0.03 | 0.00 | 60 | 1016.5 |
| 20260905234603 | 27 | 40 | 3.2 | 3.2 | 0.00 | 0.03 | 0.00 | 60 | 1016.8 |
| 20260905234503 | 27 | 40 | 3.2 | 3.2 | 0.00 | 0.03 | 0.00 | 60 | 1016.6 |
| 20260905234403 | 27 | 40 | 3.2 | 3.2 | 0.00 | 0.03 | 0.00 | 60 | 1016.6 |
| 20260905234303 | 27 | 42 | 1.6 | 3.2 | 0.00 | 0.03 | 0.00 | 60 | 1016.4 |
| 20260905234103 | 27 | 50 | 1.6 | 3.2 | 0.00 | 0.03 | 0.00 | 60 | 1016.5 |
| 20260905234003 | 27 | 54 | 1.6 | 3.2 | 0.00 | 0.03 | 0.00 | 59 | 1016.7 |
| 20260905233903 | 27 | 56 | 1.6 | 3.2 | 0.00 | 0.03 | 0.00 | 59 | 1016.6 |
| 20260905233803 | 27 | 56 | 1.6 | 3.2 | 0.00 | 0.03 | 0.00 | 59 | 1016.8 |
| 20260905233703 | 27 | 61 | 1.6 | 3.2 | 0.00 | 0.03 | 0.00 | 59 | 1016.5 |
| 20260905233603 | 27 | 60 | 1.6 | 3.2 | 0.00 | 0.03 | 0.00 | 59 | 1016.7 |
| 20260905233504 | 27 | 61 | 1.6 | 3.2 | 0.00 | 0.03 | 0.00 | 59 | 1016.6 |
| 20260905233403 | 27 | 61 | 1.6 | 3.2 | 0.00 | 0.03 | 0.00 | 59 | 1016.7 |
| 20260905233303 | 27 | 60 | 1.6 | 3.2 | 0.00 | 0.03 | 0.00 | 59 | 1016.5 |
| 20260905233203 | 27 | 57 | 1.6 | 3.2 | 0.00 | 0.03 | 0.00 | 59 | 1016.7 |
| 20260905233103 | 27 | 51 | 1.6 | 3.2 | 0.00 | 0.03 | 0.00 | 59 | 1016.6 |
| 20260905233003 | 27 | 53 | 1.6 | 3.2 | 0.00 | 0.03 | 0.00 | 59 | 1016.6 |
| 20260905232903 | 27 | 58 | 1.6 | 3.2 | 0.00 | 0.03 | 0.00 | 59 | 1016.6 |
| 20260905232803 | 27 | 61 | 1.6 | 3.2 | 0.00 | 0.03 | 0.00 | 59 | 1016.5 |
| 20260905232703 | 27 | 48 | 1.6 | 3.2 | 0.00 | 0.03 | 0.00 | 59 | 1016.7 |
| 20260905232604 | 27 | 51 | 1.6 | 3.2 | 0.00 | 0.03 | 0.00 | 60 | 1016.8 |
| 20260905232503 | 27 | 50 | 1.6 | 3.2 | 0.00 | 0.03 | 0.00 | 60 | 1016.7 |
| 20260905232403 | 27 | 49 | 1.6 | 3.2 | 0.00 | 0.03 | 0.00 | 60 | 1016.9 |
| 20260905232306 | 27 | 44 | 3.2 | 3.2 | 0.00 | 0.03 | 0.00 | 60 | 1016.9 |
| 20260905232203 | 27 | 42 | 3.2 | 3.2 | 0.00 | 0.03 | 0.00 | 60 | 1016.8 |
| 20260905232103 | 27 | 41 | 3.2 | 3.2 | 0.00 | 0.03 | 0.00 | 60 | 1016.8 |
| 20260905232003 | 27 | 37 | 3.2 | 6.4 | 0.00 | 0.03 | 0.00 | 60 | 1016.8 |
| 20260905231903 | 27 | 36 | 3.2 | 6.4 | 0.00 | 0.03 | 0.00 | 59 | 1016.8 |
| 20260905231803 | 27 | 34 | 3.2 | 6.4 | 0.00 | 0.03 | 0.00 | 59 | 1016.6 |
| 20260905231703 | 27 | 38 | 3.2 | 6.4 | 0.00 | 0.03 | 0.00 | 59 | 1016.7 |
| 20260905231603 | 27 | 36 | 3.2 | 6.4 | 0.00 | 0.03 | 0.00 | 60 | 1016.8 |
| 20260905231403 | 27 | 32 | 3.2 | 6.4 | 0.00 | 0.03 | 0.00 | 59 | 1016.8 |
| 20260905231303 | 27 | 38 | 3.2 | 6.4 | 0.00 | 0.03 | 0.00 | 59 | 1016.8 |
| 20260905231003 | 27 | 47 | 3.2 | 6.4 | 0.00 | 0.03 | 0.00 | 58 | 1016.8 |
| 20260905230903 | 27 | 47 | 3.2 | 3.2 | 0.00 | 0.03 | 0.00 | 58 | 1016.8 |
| 20260905230803 | 27 | 45 | 3.2 | 3.2 | 0.00 | 0.03 | 0.00 | 59 | 1017.0 |
| 20260905230703 | 27 | 42 | 3.2 | 3.2 | 0.00 | 0.03 | 0.00 | 60 | 1016.8 |
| 20260905230604 | 27 | 40 | 3.2 | 3.2 | 0.00 | 0.03 | 0.00 | 60 | 1017.0 |
| 20260905230503 | 27 | 39 | 3.2 | 3.2 | 0.00 | 0.03 | 0.00 | 59 | 1016.9 |
| 20260905230403 | 27 | 37 | 3.2 | 6.4 | 0.00 | 0.03 | 0.00 | 59 | 1016.9 |
| 20260905230303 | 27 | 37 | 3.2 | 6.4 | 0.00 | 0.03 | 0.00 | 59 | 1016.8 |
| 20260905230203 | 27 | 35 | 3.2 | 6.4 | 0.00 | 0.03 | 0.00 | 59 | 1017.0 |
| 20260905230103 | 27 | 35 | 3.2 | 6.4 | 0.00 | 0.03 | 0.00 | 60 | 1016.8 |
| 20260905230004 | 27 | 31 | 3.2 | 6.4 | 0.00 | 0.03 | 0.00 | 59 | 1017.0 |
| 20260905225903 | 27 | 30 | 3.2 | 6.4 | 0.00 | 0.03 | 0.00 | 60 | 1016.9 |
| 20260905225803 | 27 | 29 | 3.2 | 6.4 | 0.00 | 0.03 | 0.00 | 60 | 1016.7 |
| 20260905225703 | 27 | 31 | 3.2 | 6.4 | 0.00 | 0.03 | 0.00 | 60 | 1016.9 |
| 20260905225603 | 27 | 34 | 3.2 | 6.4 | 0.00 | 0.03 | 0.00 | 60 | 1016.9 |
| 20260905225503 | 27 | 37 | 3.2 | 6.4 | 0.00 | 0.03 | 0.00 | 59 | 1016.8 |
| 20260905225403 | 27 | 38 | 3.2 | 6.4 | 0.00 | 0.03 | 0.00 | 59 | 1016.7 |
| 20260905225305 | 27 | 39 | 3.2 | 3.2 | 0.00 | 0.03 | 0.00 | 60 | 1016.9 |
| 20260905225203 | 27 | 37 | 3.2 | 3.2 | 0.00 | 0.03 | 0.00 | 60 | 1016.9 |
| 20260905225103 | 27 | 36 | 3.2 | 3.2 | 0.00 | 0.03 | 0.00 | 60 | 1016.9 |
| 20260905225003 | 27 | 38 | 3.2 | 3.2 | 0.00 | 0.03 | 0.00 | 61 | 1016.6 |
| 20260905224903 | 27 | 38 | 3.2 | 6.4 | 0.00 | 0.03 | 0.00 | 61 | 1017.0 |
| 20260905224803 | 27 | 37 | 3.2 | 6.4 | 0.00 | 0.03 | 0.00 | 61 | 1016.8 |
| 20260905224703 | 27 | 37 | 3.2 | 6.4 | 0.00 | 0.03 | 0.00 | 61 | 1017.1 |
| 20260905224603 | 27 | 37 | 3.2 | 6.4 | 0.00 | 0.03 | 0.00 | 62 | 1016.8 |
| 20260905224503 | 27 | 35 | 3.2 | 6.4 | 0.00 | 0.03 | 0.00 | 62 | 1016.9 |
| 20260905224403 | 27 | 35 | 3.2 | 6.4 | 0.00 | 0.03 | 0.00 | 62 | 1016.9 |
| 20260905224303 | 27 | 37 | 3.2 | 6.4 | 0.00 | 0.03 | 0.00 | 62 | 1016.8 |
| 20260905224203 | 27 | 39 | 3.2 | 6.4 | 0.00 | 0.03 | 0.00 | 61 | 1016.7 |
| 20260905224003 | 27 | 44 | 3.2 | 6.4 | 0.00 | 0.03 | 0.00 | 60 | 1016.9 |
| 20260905223903 | 27 | 42 | 3.2 | 3.2 | 0.00 | 0.03 | 0.00 | 61 | 1017.0 |
| 20260905223803 | 27 | 45 | 3.2 | 3.2 | 0.00 | 0.03 | 0.00 | 62 | 1016.9 |
| 20260905223703 | 27 | 45 | 3.2 | 3.2 | 0.00 | 0.03 | 0.00 | 62 | 1017.0 |
| 20260905223603 | 27 | 45 | 3.2 | 3.2 | 0.00 | 0.03 | 0.00 | 62 | 1016.8 |
| 20260905223503 | 27 | 46 | 1.6 | 3.2 | 0.00 | 0.03 | 0.00 | 62 | 1016.7 |
| 20260905223403 | 27 | 49 | 1.6 | 3.2 | 0.00 | 0.03 | 0.00 | 62 | 1016.7 |
| 20260905223303 | 27 | 50 | 1.6 | 3.2 | 0.00 | 0.03 | 0.00 | 62 | 1016.8 |
| 20260905223203 | 27 | 51 | 1.6 | 3.2 | 0.00 | 0.03 | 0.00 | 62 | 1016.7 |
| 20260905223103 | 27 | 41 | 1.6 | 3.2 | 0.00 | 0.03 | 0.00 | 61 | 1016.8 |
| 20260905223003 | 27 | 42 | 1.6 | 3.2 | 0.00 | 0.03 | 0.00 | 61 | 1016.9 |
| 20260905222903 | 27 | 43 | 1.6 | 3.2 | 0.00 | 0.03 | 0.00 | 60 | 1016.9 |
| 20260905222803 | 27 | 44 | 1.6 | 3.2 | 0.00 | 0.03 | 0.00 | 60 | 1016.9 |
| 20260905222703 | 27 | 44 | 1.6 | 3.2 | 0.00 | 0.03 | 0.00 | 61 | 1016.7 |
| 20260905222603 | 27 | 44 | 1.6 | 3.2 | 0.00 | 0.03 | 0.00 | 61 | 1016.8 |
| 20260905222503 | 27 | 48 | 1.6 | 3.2 | 0.00 | 0.03 | 0.00 | 61 | 1016.8 |
| 20260905222403 | 27 | 53 | 1.6 | 3.2 | 0.00 | 0.03 | 0.00 | 61 | 1016.9 |
| 20260905222306 | 27 | 53 | 3.2 | 3.2 | 0.00 | 0.03 | 0.00 | 61 | 1016.9 |
| 20260905222203 | 27 | 52 | 3.2 | 3.2 | 0.00 | 0.03 | 0.00 | 61 | 1017.0 |
| 20260905222103 | 27 | 52 | 3.2 | 3.2 | 0.00 | 0.03 | 0.00 | 62 | 1017.0 |
| 20260905222003 | 27 | 52 | 3.2 | 3.2 | 0.00 | 0.03 | 0.00 | 62 | 1016.6 |
| 20260905221903 | 27 | 56 | 3.2 | 3.2 | 0.00 | 0.03 | 0.00 | 62 | 1017.0 |
| 20260905221803 | 27 | 60 | 3.2 | 3.2 | 0.00 | 0.03 | 0.00 | 63 | 1016.8 |
| 20260905221703 | 27 | 60 | 3.2 | 3.2 | 0.00 | 0.03 | 0.00 | 63 | 1016.9 |
| 20260905221603 | 27 | 61 | 3.2 | 3.2 | 0.00 | 0.03 | 0.00 | 63 | 1017.0 |
| 20260905221503 | 26 | 50 | 3.2 | 3.2 | 0.00 | 0.03 | 0.00 | 64 | 1016.8 |
| 20260905221403 | 26 | 45 | 3.2 | 3.2 | 0.00 | 0.03 | 0.00 | 64 | 1016.8 |
| 20260905221303 | 26 | 42 | 3.2 | 3.2 | 0.00 | 0.03 | 0.00 | 64 | 1017.0 |
| 20260905221203 | 26 | 41 | 3.2 | 3.2 | 0.00 | 0.03 | 0.00 | 65 | 1016.7 |
| 20260905221103 | 26 | 39 | 3.2 | 3.2 | 0.00 | 0.03 | 0.00 | 65 | 1017.0 |
| 20260905221003 | 26 | 38 | 3.2 | 3.2 | 0.00 | 0.03 | 0.00 | 65 | 1017.0 |
| 20260905220903 | 26 | 35 | 3.2 | 3.2 | 0.00 | 0.03 | 0.00 | 66 | 1016.9 |
| 20260905220803 | 26 | 29 | 3.2 | 3.2 | 0.00 | 0.03 | 0.00 | 66 | 1016.7 |
| 20260905220703 | 26 | 28 | 1.6 | 3.2 | 0.00 | 0.03 | 0.00 | 66 | 1017.0 |
| 20260905220603 | 26 | 28 | 1.6 | 3.2 | 0.00 | 0.03 | 0.00 | 66 | 1017.0 |
| 20260905220503 | 26 | 32 | 1.6 | 3.2 | 0.00 | 0.05 | 0.00 | 66 | 1017.0 |
| 20260905220403 | 26 | 33 | 1.6 | 3.2 | 0.00 | 0.13 | 0.00 | 67 | 1016.8 |
| 20260905220303 | 26 | 29 | 1.6 | 3.2 | 0.00 | 0.15 | 0.00 | 67 | 1016.7 |
| 20260905220203 | 26 | 26 | 1.6 | 3.2 | 0.00 | 0.18 | 0.00 | 67 | 1016.9 |
| 20260905220103 | 26 | 29 | 1.6 | 3.2 | 0.00 | 0.20 | 0.00 | 68 | 1016.8 |
| 20260905220046 | 26 | 27 | 1.6 | 3.2 | 0.00 | 0.20 | 0.00 | 68 | 1016.8 |
| 20260905215903 | 26 | 33 | 1.6 | 3.2 | 0.00 | 0.28 | 0.20 | 69 | 1016.7 |
| 20260905215803 | 26 | 39 | 1.6 | 3.2 | 0.00 | 0.30 | 0.20 | 70 | 1016.9 |
| 20260905215703 | 26 | 45 | 1.6 | 3.2 | 0.00 | 0.33 | 0.20 | 70 | 1016.9 |
| 20260905215603 | 26 | 41 | 1.6 | 3.2 | 0.00 | 0.36 | 0.20 | 70 | 1017.1 |
| 20260905215503 | 26 | 42 | 1.6 | 3.2 | 0.00 | 0.38 | 0.20 | 70 | 1016.8 |
| 20260905215403 | 26 | 40 | 1.6 | 3.2 | 0.00 | 0.43 | 0.20 | 70 | 1016.9 |
| 20260905215306 | 26 | 38 | 3.2 | 3.2 | 0.00 | 0.46 | 0.20 | 70 | 1017.0 |
| 20260905215203 | 26 | 39 | 3.2 | 3.2 | 0.00 | 0.48 | 0.20 | 71 | 1016.9 |
| 20260905215103 | 26 | 39 | 3.2 | 3.2 | 0.00 | 0.53 | 0.20 | 71 | 1016.7 |
| 20260905215004 | 26 | 39 | 3.2 | 3.2 | 0.00 | 0.53 | 0.20 | 72 | 1017.0 |
| 20260905214903 | 26 | 41 | 3.2 | 3.2 | 0.00 | 0.56 | 0.20 | 73 | 1016.9 |
| 20260905214804 | 26 | 38 | 3.2 | 3.2 | 0.00 | 0.61 | 0.20 | 73 | 1017.0 |
| 20260905214704 | 26 | 35 | 3.2 | 6.4 | 0.00 | 0.66 | 0.20 | 73 | 1016.8 |
| 20260905214603 | 26 | 36 | 3.2 | 6.4 | 0.00 | 0.69 | 0.20 | 73 | 1016.9 |
| 20260905214503 | 26 | 35 | 3.2 | 6.4 | 0.00 | 0.76 | 0.20 | 73 | 1016.9 |
| 20260905214403 | 26 | 33 | 3.2 | 6.4 | 0.00 | 0.76 | 0.20 | 73 | 1016.8 |
| 20260905214303 | 26 | 34 | 3.2 | 6.4 | 0.00 | 0.79 | 0.20 | 73 | 1016.8 |
| 20260905214203 | 26 | 33 | 3.2 | 6.4 | 0.00 | 0.81 | 0.20 | 73 | 1016.9 |
| 20260905214103 | 26 | 32 | 3.2 | 6.4 | 0.00 | 0.84 | 0.20 | 74 | 1016.8 |
| 20260905214003 | 26 | 32 | 3.2 | 6.4 | 0.00 | 0.86 | 0.20 | 73 | 1016.8 |
| 20260905213903 | 26 | 30 | 3.2 | 6.4 | 0.00 | 0.89 | 0.20 | 73 | 1017.0 |
| 20260905213803 | 26 | 32 | 3.2 | 6.4 | 0.00 | 0.94 | 0.20 | 73 | 1017.0 |
| 20260905213703 | 26 | 27 | 3.2 | 6.4 | 0.00 | 0.97 | 0.20 | 73 | 1016.8 |
| 20260905213603 | 26 | 26 | 3.2 | 6.4 | 0.00 | 0.99 | 0.20 | 73 | 1016.8 |
| 20260905213503 | 26 | 24 | 3.2 | 3.2 | 0.00 | 1.04 | 0.20 | 73 | 1016.7 |
| 20260905213403 | 26 | 26 | 3.2 | 3.2 | 0.00 | 1.09 | 0.20 | 73 | 1016.9 |
| 20260905213303 | 26 | 25 | 3.2 | 3.2 | 0.00 | 1.09 | 0.20 | 73 | 1016.8 |
| 20260905213203 | 26 | 25 | 3.2 | 3.2 | 0.00 | 1.12 | 0.20 | 73 | 1016.9 |
| 20260905213103 | 26 | 25 | 3.2 | 3.2 | 0.00 | 1.17 | 0.20 | 73 | 1016.9 |
| 20260905213005 | 26 | 25 | 3.2 | 3.2 | 0.00 | 1.19 | 0.20 | 73 | 1017.0 |
| 20260905212903 | 26 | 27 | 3.2 | 3.2 | 0.00 | 1.19 | 0.20 | 73 | 1017.1 |
| 20260905212803 | 26 | 27 | 3.2 | 3.2 | 0.00 | 1.22 | 0.20 | 73 | 1016.9 |
| 20260905212703 | 26 | 30 | 3.2 | 3.2 | 0.00 | 1.30 | 0.20 | 73 | 1016.8 |
| 20260905212603 | 26 | 30 | 3.2 | 3.2 | 0.00 | 1.32 | 0.20 | 73 | 1017.0 |
| 20260905212503 | 26 | 31 | 3.2 | 3.2 | 0.00 | 1.35 | 0.20 | 72 | 1016.9 |
| 20260905212403 | 26 | 33 | 3.2 | 3.2 | 0.00 | 1.37 | 0.20 | 72 | 1016.9 |
| 20260905212306 | 26 | 35 | 1.6 | 3.2 | 0.00 | 1.42 | 0.20 | 72 | 1016.9 |
| 20260905212203 | 26 | 33 | 1.6 | 3.2 | 0.00 | 1.47 | 0.20 | 72 | 1017.1 |
| 20260905212103 | 26 | 39 | 1.6 | 3.2 | 0.00 | 1.47 | 0.20 | 72 | 1017.0 |
| 20260905212003 | 26 | 36 | 1.6 | 3.2 | 0.00 | 1.50 | 0.20 | 72 | 1016.9 |
| 20260905211903 | 26 | 30 | 1.6 | 3.2 | 0.00 | 1.52 | 0.20 | 71 | 1017.0 |
| 20260905211803 | 26 | 22 | 0.0 | 3.2 | 0.00 | 1.55 | 0.20 | 70 | 1016.8 |
| 20260905211703 | 26 | 28 | 0.0 | 3.2 | 0.00 | 1.60 | 0.20 | 70 | 1016.8 |
| 20260905211603 | 26 | 33 | 0.0 | 3.2 | 0.00 | 1.63 | 0.20 | 69 | 1016.9 |
| 20260905211503 | 26 | 33 | 0.0 | 3.2 | 0.00 | 1.68 | 0.20 | 68 | 1017.0 |
| 20260905211403 | 26 | 33 | 0.0 | 3.2 | 0.00 | 1.70 | 0.20 | 68 | 1016.9 |
| 20260905211303 | 26 | 27 | 1.6 | 3.2 | 0.00 | 1.70 | 0.20 | 68 | 1016.9 |
| 20260905211203 | 26 | 28 | 1.6 | 3.2 | 0.00 | 1.75 | 0.20 | 68 | 1017.0 |
| 20260905211103 | 26 | 32 | 1.6 | 3.2 | 0.00 | 1.80 | 0.20 | 70 | 1017.0 |
| 20260905211003 | 26 | 35 | 1.6 | 6.4 | 0.00 | 1.83 | 0.20 | 70 | 1017.0 |
| 20260905210903 | 26 | 37 | 1.6 | 6.4 | 0.00 | 1.85 | 0.20 | 70 | 1016.8 |
| 20260905210803 | 26 | 40 | 1.6 | 6.4 | 0.00 | 1.85 | 0.20 | 70 | 1016.9 |
| 20260905210703 | 26 | 38 | 3.2 | 6.4 | 0.00 | 1.93 | 0.20 | 71 | 1016.8 |
| 20260905210603 | 26 | 37 | 3.2 | 6.4 | 0.00 | 1.96 | 0.20 | 71 | 1017.0 |
| 20260905210503 | 26 | 36 | 3.2 | 6.4 | 0.00 | 2.01 | 0.20 | 71 | 1016.8 |
| 20260905210403 | 26 | 36 | 3.2 | 6.4 | 0.00 | 2.01 | 0.20 | 72 | 1016.7 |
| 20260905210303 | 26 | 36 | 3.2 | 6.4 | 0.00 | 2.03 | 0.20 | 72 | 1016.9 |
| 20260905210203 | 26 | 36 | 3.2 | 6.4 | 0.00 | 2.06 | 0.20 | 72 | 1016.9 |
| 20260905210103 | 26 | 36 | 3.2 | 6.4 | 0.00 | 2.11 | 0.20 | 72 | 1016.9 |
| 20260905210003 | 26 | 36 | 3.2 | 6.4 | 0.00 | 2.13 | 0.20 | 72 | 1017.0 |
| 20260905205903 | 26 | 36 | 3.2 | 6.4 | 0.00 | 2.18 | 0.20 | 72 | 1016.8 |
| 20260905205803 | 26 | 35 | 3.2 | 6.4 | 0.00 | 2.18 | 0.20 | 72 | 1016.9 |
| 20260905205703 | 26 | 36 | 3.2 | 6.4 | 0.00 | 2.31 | 0.20 | 72 | 1017.0 |
| 20260905205603 | 26 | 35 | 3.2 | 6.4 | 0.00 | 2.31 | 0.20 | 72 | 1016.8 |
| 20260905205503 | 26 | 37 | 3.2 | 6.4 | 0.00 | 2.31 | 0.20 | 72 | 1016.9 |
| 20260905205403 | 26 | 37 | 3.2 | 6.4 | 0.00 | 2.34 | 0.20 | 71 | 1016.9 |
| 20260905205306 | 26 | 40 | 3.2 | 6.4 | 0.00 | 2.36 | 0.20 | 71 | 1016.8 |
| 20260905205203 | 26 | 39 | 3.2 | 3.2 | 0.00 | 2.36 | 0.20 | 70 | 1016.9 |
| 20260905205103 | 26 | 38 | 3.2 | 3.2 | 0.00 | 2.44 | 0.20 | 70 | 1017.1 |
| 20260905205003 | 26 | 38 | 3.2 | 3.2 | 0.00 | 2.46 | 0.20 | 71 | 1017.0 |
| 20260905204903 | 26 | 38 | 3.2 | 3.2 | 0.00 | 2.49 | 0.20 | 71 | 1016.7 |
| 20260905204803 | 26 | 36 | 3.2 | 3.2 | 0.00 | 2.51 | 0.20 | 71 | 1016.9 |
| 20260905204703 | 26 | 36 | 3.2 | 3.2 | 0.00 | 2.54 | 0.20 | 70 | 1016.7 |
| 20260905204603 | 26 | 36 | 3.2 | 3.2 | 0.00 | 2.62 | 0.20 | 70 | 1016.9 |
| 20260905204503 | 26 | 33 | 3.2 | 3.2 | 0.00 | 2.62 | 0.20 | 70 | 1016.8 |
| 20260905204403 | 26 | 31 | 3.2 | 3.2 | 0.00 | 2.64 | 0.20 | 69 | 1016.8 |
| 20260905204303 | 26 | 31 | 3.2 | 3.2 | 0.00 | 2.69 | 0.20 | 68 | 1016.8 |
| 20260905204203 | 26 | 32 | 3.2 | 3.2 | 0.00 | 2.69 | 0.20 | 68 | 1016.8 |
| 20260905204103 | 26 | 31 | 3.2 | 3.2 | 0.00 | 2.77 | 0.20 | 68 | 1016.8 |
| 20260905204003 | 26 | 31 | 3.2 | 3.2 | 0.00 | 2.77 | 0.20 | 69 | 1016.5 |
| 20260905203903 | 26 | 30 | 3.2 | 3.2 | 0.00 | 2.84 | 0.20 | 69 | 1016.8 |
| 20260905203803 | 26 | 35 | 3.2 | 3.2 | 0.00 | 2.84 | 0.20 | 68 | 1016.9 |
| 20260905203703 | 26 | 37 | 3.2 | 3.2 | 0.00 | 2.87 | 0.20 | 68 | 1016.9 |
| 20260905203604 | 27 | 40 | 3.2 | 3.2 | 0.00 | 2.95 | 0.20 | 67 | 1016.8 |
| 20260905203503 | 27 | 42 | 3.2 | 3.2 | 0.00 | 2.95 | 0.20 | 67 | 1016.9 |
| 20260905203403 | 27 | 44 | 3.2 | 3.2 | 0.00 | 3.02 | 0.20 | 66 | 1016.8 |
| 20260905203303 | 27 | 41 | 3.2 | 3.2 | 0.00 | 3.02 | 0.20 | 64 | 1017.0 |
| 20260905203203 | 27 | 41 | 3.2 | 3.2 | 0.00 | 3.02 | 0.20 | 64 | 1016.9 |
| 20260905203103 | 27 | 43 | 3.2 | 3.2 | 0.00 | 3.05 | 0.20 | 64 | 1016.9 |
| 20260905203003 | 27 | 44 | 1.6 | 3.2 | 0.00 | 3.10 | 0.20 | 64 | 1016.8 |
| 20260905202903 | 27 | 44 | 1.6 | 3.2 | 0.00 | 3.15 | 0.20 | 64 | 1016.8 |
| 20260905202804 | 27 | 38 | 1.6 | 3.2 | 0.00 | 3.15 | 0.20 | 64 | 1016.7 |
| 20260905202703 | 27 | 33 | 1.6 | 3.2 | 0.00 | 3.17 | 0.20 | 63 | 1016.9 |
| 20260905202604 | 27 | 31 | 1.6 | 3.2 | 0.00 | 3.25 | 0.20 | 63 | 1016.8 |
| 20260905202503 | 27 | 26 | 0.0 | 3.2 | 0.00 | 3.25 | 0.20 | 63 | 1016.9 |
| 20260905202403 | 27 | 22 | 0.0 | 3.2 | 0.00 | 3.30 | 0.20 | 61 | 1016.8 |
| 20260905202306 | 27 | 22 | 0.0 | 3.2 | 0.00 | 3.35 | 0.20 | 61 | 1016.9 |
| 20260905202203 | 27 | 0 | 0.0 | 0.0 | 0.00 | 3.35 | 0.20 | 61 | 1016.9 |
| 20260905202103 | 27 | 0 | 0.0 | 0.0 | 0.00 | 3.38 | 0.20 | 61 | 1017.1 |
| 20260905202003 | 27 | 0 | 0.0 | 0.0 | 0.00 | 3.38 | 0.20 | 61 | 1016.9 |
| 20260905201903 | 27 | 0 | 0.0 | 0.0 | 0.00 | 3.51 | 0.20 | 61 | 1016.8 |
| 20260905201803 | 27 | 0 | 0.0 | 0.0 | 0.00 | 3.51 | 0.20 | 61 | 1016.9 |
| 20260905201703 | 27 | 0 | 0.0 | 0.0 | 0.00 | 3.51 | 0.20 | 61 | 1016.9 |
| 20260905201603 | 27 | 0 | 0.0 | 0.0 | 0.00 | 3.51 | 0.20 | 61 | 1017.1 |
| 20260905201503 | 27 | 0 | 0.0 | 0.0 | 0.00 | 3.58 | 0.20 | 61 | 1017.0 |
| 20260905201403 | 27 | 0 | 0.0 | 0.0 | 0.00 | 3.61 | 0.20 | 61 | 1017.2 |
| 20260905201303 | 27 | 0 | 0.0 | 0.0 | 0.00 | 3.63 | 0.20 | 61 | 1017.0 |
| 20260905201203 | 27 | 0 | 0.0 | 0.0 | 0.00 | 3.66 | 0.20 | 61 | 1016.9 |
| 20260905201103 | 27 | 0 | 0.0 | 0.0 | 0.00 | 3.68 | 0.20 | 61 | 1017.0 |
| 20260905201003 | 27 | 0 | 0.0 | 0.0 | 0.00 | 3.71 | 0.20 | 61 | 1016.9 |
| 20260905200903 | 27 | 0 | 0.0 | 0.0 | 0.00 | 3.76 | 0.20 | 61 | 1016.9 |
| 20260905200803 | 27 | 0 | 0.0 | 0.0 | 0.00 | 3.78 | 0.20 | 61 | 1016.8 |
| 20260905200703 | 27 | 0 | 0.0 | 0.0 | 0.00 | 3.84 | 0.20 | 61 | 1017.0 |
| 20260905200603 | 27 | 0 | 0.0 | 0.0 | 0.00 | 3.86 | 0.20 | 61 | 1017.0 |
| 20260905200503 | 27 | 0 | 0.0 | 0.0 | 0.00 | 3.86 | 0.20 | 61 | 1016.9 |
| 20260905200403 | 27 | 0 | 0.0 | 0.0 | 0.00 | 3.91 | 0.20 | 61 | 1016.9 |
| 20260905200303 | 27 | 0 | 0.0 | 0.0 | 0.00 | 3.96 | 0.20 | 61 | 1016.7 |
| 20260905200203 | 27 | 0 | 0.0 | 0.0 | 0.00 | 3.99 | 0.20 | 61 | 1017.1 |
| 20260905200103 | 27 | 0 | 0.0 | 0.0 | 0.00 | 4.09 | 0.20 | 61 | 1017.0 |
| 20260905200004 | 27 | 0 | 0.0 | 0.0 | 0.00 | 4.09 | 0.20 | 61 | 1017.1 |
| 20260905195903 | 27 | 0 | 0.0 | 0.0 | 0.00 | 4.09 | 0.20 | 61 | 1017.1 |
| 20260905195803 | 27 | 0 | 0.0 | 0.0 | 0.00 | 4.11 | 0.20 | 61 | 1016.8 |
| 20260905195703 | 27 | 0 | 0.0 | 0.0 | 0.00 | 4.14 | 0.20 | 61 | 1016.8 |
| 20260905195603 | 27 | 0 | 0.0 | 0.0 | 0.00 | 4.17 | 0.20 | 61 | 1017.0 |
| 20260905195503 | 27 | 0 | 0.0 | 0.0 | 0.00 | 4.19 | 0.20 | 61 | 1016.9 |
| 20260905195403 | 27 | 0 | 0.0 | 0.0 | 0.00 | 4.24 | 0.20 | 61 | 1017.0 |
| 20260905195306 | 27 | 0 | 0.0 | 0.0 | 0.00 | 4.27 | 0.20 | 61 | 1017.1 |
| 20260905195203 | 27 | 0 | 0.0 | 0.0 | 0.00 | 4.29 | 0.20 | 61 | 1016.9 |
| 20260905195103 | 27 | 0 | 0.0 | 0.0 | 0.00 | 4.34 | 0.20 | 61 | 1016.9 |
| 20260905195004 | 27 | 0 | 0.0 | 0.0 | 0.00 | 4.37 | 0.20 | 61 | 1017.1 |
| 20260905194903 | 27 | 0 | 0.0 | 0.0 | 0.00 | 4.37 | 0.20 | 61 | 1017.2 |
| 20260905194803 | 27 | 0 | 0.0 | 0.0 | 0.00 | 4.42 | 0.20 | 61 | 1017.1 |
| 20260905194703 | 27 | 0 | 0.0 | 0.0 | 0.00 | 4.47 | 0.20 | 61 | 1016.9 |
| 20260905194603 | 27 | 0 | 0.0 | 0.0 | 0.00 | 4.50 | 0.20 | 60 | 1017.1 |
| 20260905194503 | 27 | 0 | 0.0 | 0.0 | 0.00 | 4.52 | 0.20 | 60 | 1017.1 |
| 20260905194403 | 27 | 0 | 0.0 | 0.0 | 0.00 | 4.52 | 0.20 | 60 | 1017.1 |
| 20260905194303 | 27 | 0 | 0.0 | 0.0 | 0.00 | 4.60 | 0.20 | 61 | 1017.2 |
| 20260905194203 | 27 | 0 | 0.0 | 0.0 | 0.00 | 4.62 | 0.20 | 61 | 1017.2 |
| 20260905194103 | 27 | 0 | 0.0 | 0.0 | 0.00 | 4.65 | 0.20 | 61 | 1017.0 |
| 20260905194003 | 27 | 0 | 0.0 | 0.0 | 0.00 | 4.67 | 0.20 | 61 | 1017.2 |
| 20260905193903 | 27 | 0 | 0.0 | 0.0 | 0.00 | 4.70 | 0.20 | 62 | 1017.2 |
| 20260905193803 | 27 | 0 | 0.0 | 0.0 | 0.00 | 4.75 | 0.20 | 62 | 1017.1 |
| 20260905193703 | 27 | 0 | 0.0 | 0.0 | 0.00 | 4.78 | 0.20 | 62 | 1017.1 |
| 20260905193603 | 27 | 0 | 0.0 | 0.0 | 0.00 | 4.80 | 0.20 | 62 | 1017.1 |
| 20260905193503 | 27 | 0 | 0.0 | 0.0 | 0.00 | 4.85 | 0.20 | 65 | 1017.1 |
| 20260905193403 | 27 | 0 | 0.0 | 0.0 | 0.00 | 4.85 | 0.20 | 65 | 1017.1 |
| 20260905193303 | 27 | 0 | 0.0 | 0.0 | 0.00 | 4.90 | 0.20 | 65 | 1017.1 |
| 20260905193203 | 27 | 0 | 0.0 | 0.0 | 0.00 | 4.93 | 0.20 | 65 | 1017.1 |
| 20260905193103 | 27 | 0 | 0.0 | 0.0 | 0.00 | 4.98 | 0.20 | 65 | 1017.0 |
| 20260905193003 | 27 | 0 | 0.0 | 0.0 | 0.00 | 5.00 | 0.20 | 65 | 1017.0 |
| 20260905192903 | 27 | 0 | 0.0 | 0.0 | 0.00 | 5.00 | 0.20 | 65 | 1017.0 |
| 20260905192803 | 27 | 0 | 0.0 | 0.0 | 0.00 | 5.03 | 0.20 | 65 | 1017.3 |
| 20260905192703 | 27 | 0 | 0.0 | 0.0 | 0.00 | 5.11 | 0.20 | 64 | 1016.9 |
| 20260905192603 | 27 | 0 | 0.0 | 0.0 | 0.00 | 5.16 | 0.20 | 65 | 1017.0 |
| 20260905192503 | 27 | 0 | 0.0 | 0.0 | 0.00 | 5.16 | 0.20 | 65 | 1016.8 |
| 20260905192403 | 27 | 0 | 0.0 | 0.0 | 0.00 | 5.18 | 0.20 | 64 | 1016.8 |
| 20260905192306 | 27 | 0 | 0.0 | 0.0 | 0.00 | 5.26 | 0.20 | 64 | 1017.0 |
| 20260905192203 | 27 | 0 | 0.0 | 0.0 | 0.00 | 5.26 | 0.20 | 64 | 1016.7 |
| 20260905192103 | 27 | 0 | 0.0 | 0.0 | 0.00 | 5.26 | 0.20 | 64 | 1017.0 |
| 20260905192003 | 27 | 0 | 0.0 | 0.0 | 0.00 | 5.26 | 0.20 | 64 | 1016.8 |
| 20260905191903 | 26 | 0 | 0.0 | 0.0 | 0.00 | 5.26 | 0.20 | 65 | 1016.9 |
| 20260905191803 | 26 | 0 | 0.0 | 0.0 | 0.00 | 5.26 | 0.20 | 64 | 1017.0 |
| 20260905191703 | 26 | 0 | 0.0 | 0.0 | 0.00 | 5.26 | 0.20 | 64 | 1016.9 |
| 20260905191603 | 26 | 0 | 0.0 | 0.0 | 0.00 | 5.26 | 0.20 | 64 | 1016.6 |
| 20260905191504 | 27 | 0 | 0.0 | 0.0 | 0.00 | 5.26 | 0.20 | 63 | 1016.7 |
| 20260905191404 | 27 | 0 | 0.0 | 0.0 | 0.00 | 5.26 | 0.20 | 63 | 1016.8 |
| 20260905191303 | 27 | 0 | 0.0 | 0.0 | 0.00 | 5.26 | 0.20 | 63 | 1016.6 |
| 20260905191203 | 27 | 0 | 0.0 | 0.0 | 0.00 | 5.26 | 0.20 | 63 | 1017.0 |
| 20260905191103 | 27 | 0 | 0.0 | 0.0 | 0.00 | 5.26 | 0.20 | 63 | 1016.6 |
| 20260905191003 | 27 | 0 | 0.0 | 0.0 | 0.00 | 5.26 | 0.20 | 64 | 1016.8 |
| 20260905190903 | 27 | 0 | 0.0 | 0.0 | 0.00 | 5.26 | 0.20 | 64 | 1016.8 |
| 20260905190803 | 27 | 0 | 0.0 | 0.0 | 0.00 | 5.26 | 0.20 | 64 | 1016.7 |
| 20260905190703 | 27 | 0 | 0.0 | 0.0 | 0.00 | 5.26 | 0.20 | 64 | 1016.8 |
| 20260905190603 | 27 | 0 | 0.0 | 0.0 | 0.00 | 5.26 | 0.20 | 64 | 1016.8 |
| 20260905190503 | 27 | 0 | 0.0 | 0.0 | 0.00 | 5.26 | 0.20 | 64 | 1016.7 |
| 20260905190404 | 27 | 0 | 0.0 | 0.0 | 0.00 | 5.26 | 0.20 | 64 | 1016.8 |
| 20260905190303 | 27 | 0 | 0.0 | 0.0 | 0.00 | 5.26 | 0.20 | 64 | 1016.8 |
| 20260905190203 | 27 | 0 | 0.0 | 0.0 | 0.00 | 5.26 | 0.20 | 64 | 1016.8 |
| 20260905190103 | 27 | 0 | 0.0 | 0.0 | 0.00 | 5.26 | 0.20 | 64 | 1016.8 |
| 20260905190004 | 27 | 0 | 0.0 | 0.0 | 0.00 | 5.26 | 0.20 | 64 | 1016.7 |
| 20260905185903 | 27 | 0 | 0.0 | 0.0 | 0.00 | 5.26 | 0.20 | 65 | 1016.8 |
| 20260905185803 | 27 | 0 | 0.0 | 0.0 | 0.00 | 5.26 | 0.20 | 64 | 1016.7 |
| 20260905185703 | 27 | 0 | 0.0 | 0.0 | 0.00 | 5.26 | 0.20 | 64 | 1016.7 |
| 20260905185603 | 27 | 0 | 0.0 | 0.0 | 0.00 | 5.26 | 0.20 | 64 | 1016.7 |
| 20260905185503 | 27 | 0 | 0.0 | 0.0 | 0.00 | 5.26 | 0.20 | 64 | 1016.6 |
| 20260905185403 | 27 | 0 | 0.0 | 0.0 | 0.00 | 5.26 | 0.20 | 64 | 1016.6 |
| 20260905185305 | 27 | 0 | 0.0 | 0.0 | 0.00 | 5.26 | 0.20 | 63 | 1016.6 |
| 20260905185203 | 27 | 0 | 0.0 | 0.0 | 0.00 | 5.26 | 0.20 | 63 | 1016.8 |
| 20260905185103 | 27 | 0 | 0.0 | 0.0 | 0.00 | 5.26 | 0.20 | 64 | 1016.7 |
| 20260905185003 | 27 | 0 | 0.0 | 0.0 | 0.00 | 5.26 | 0.20 | 64 | 1016.6 |
| 20260905184903 | 27 | 0 | 0.0 | 0.0 | 0.00 | 5.26 | 0.20 | 64 | 1016.7 |
| 20260905184803 | 27 | 0 | 0.0 | 0.0 | 0.00 | 5.26 | 0.20 | 64 | 1016.5 |
| 20260905184703 | 27 | 0 | 0.0 | 0.0 | 0.00 | 5.26 | 0.20 | 65 | 1016.6 |
| 20260905184603 | 27 | 0 | 0.0 | 0.0 | 0.00 | 5.26 | 0.20 | 65 | 1016.5 |
| 20260905184503 | 27 | 0 | 0.0 | 0.0 | 0.00 | 5.26 | 0.20 | 65 | 1016.6 |
| 20260905184403 | 27 | 0 | 0.0 | 0.0 | 0.00 | 5.26 | 0.20 | 65 | 1016.7 |
| 20260905184303 | 27 | 0 | 0.0 | 0.0 | 0.00 | 5.26 | 0.20 | 65 | 1016.6 |
| 20260905184203 | 27 | 0 | 0.0 | 0.0 | 0.00 | 5.26 | 0.20 | 65 | 1016.7 |
| 20260905184103 | 27 | 0 | 0.0 | 0.0 | 0.00 | 5.26 | 0.20 | 65 | 1016.5 |
| 20260905184003 | 27 | 0 | 0.0 | 0.0 | 0.00 | 5.26 | 0.20 | 65 | 1016.5 |
| 20260905183903 | 27 | 0 | 0.0 | 0.0 | 0.00 | 5.26 | 0.20 | 64 | 1016.4 |
| 20260905183803 | 27 | 0 | 0.0 | 0.0 | 0.00 | 5.26 | 0.20 | 64 | 1016.1 |
| 20260905183603 | 27 | 0 | 0.0 | 0.0 | 0.00 | 5.26 | 0.20 | 64 | 1016.3 |
| 20260905183503 | 27 | 0 | 0.0 | 0.0 | 0.00 | 5.26 | 0.20 | 64 | 1016.6 |
| 20260905183403 | 27 | 0 | 0.0 | 0.0 | 0.00 | 5.26 | 0.20 | 64 | 1016.1 |
| 20260905183303 | 27 | 0 | 0.0 | 0.0 | 0.00 | 5.26 | 0.20 | 64 | 1016.4 |
| 20260905183203 | 27 | 0 | 0.0 | 0.0 | 0.00 | 5.26 | 0.20 | 64 | 1016.5 |
| 20260905183103 | 27 | 0 | 0.0 | 0.0 | 0.00 | 5.26 | 0.20 | 64 | 1016.5 |
| 20260905183003 | 27 | 0 | 0.0 | 0.0 | 0.00 | 5.26 | 0.20 | 64 | 1016.4 |
| 20260905182903 | 27 | 0 | 0.0 | 0.0 | 0.00 | 5.26 | 0.20 | 64 | 1016.4 |
| 20260905182803 | 27 | 0 | 0.0 | 0.0 | 0.00 | 5.26 | 0.20 | 63 | 1016.3 |
| 20260905182703 | 27 | 0 | 0.0 | 0.0 | 0.00 | 5.26 | 0.20 | 63 | 1016.4 |
| 20260905182603 | 27 | 0 | 0.0 | 0.0 | 0.00 | 5.26 | 0.20 | 64 | 1016.3 |
| 20260905182503 | 27 | 0 | 0.0 | 0.0 | 0.00 | 5.26 | 0.20 | 64 | 1016.3 |
| 20260905182403 | 27 | 0 | 0.0 | 0.0 | 0.00 | 5.26 | 0.20 | 64 | 1016.4 |
| 20260905182305 | 27 | 0 | 0.0 | 0.0 | 0.00 | 5.26 | 0.20 | 64 | 1016.4 |
| 20260905182103 | 27 | 0 | 0.0 | 0.0 | 0.00 | 5.26 | 0.20 | 63 | 1016.4 |
| 20260905182003 | 27 | 0 | 0.0 | 0.0 | 0.00 | 5.26 | 0.20 | 63 | 1016.5 |
| 20260905181903 | 27 | 0 | 0.0 | 0.0 | 0.00 | 5.26 | 0.20 | 63 | 1016.3 |
| 20260905181803 | 27 | 0 | 0.0 | 0.0 | 0.00 | 5.26 | 0.20 | 63 | 1016.4 |
| 20260905181703 | 27 | 0 | 0.0 | 0.0 | 0.00 | 5.26 | 0.20 | 63 | 1016.3 |
| 20260905181603 | 27 | 0 | 0.0 | 0.0 | 0.00 | 5.26 | 0.20 | 63 | 1016.3 |
| 20260905181503 | 27 | 0 | 0.0 | 0.0 | 0.00 | 5.26 | 0.20 | 62 | 1016.1 |
| 20260905181403 | 27 | 0 | 0.0 | 0.0 | 0.00 | 5.26 | 0.20 | 62 | 1016.5 |
| 20260905181303 | 27 | 0 | 0.0 | 0.0 | 0.00 | 5.26 | 0.20 | 62 | 1016.4 |
| 20260905181203 | 27 | 0 | 0.0 | 0.0 | 0.00 | 5.26 | 0.20 | 62 | 1016.4 |
| 20260905181103 | 27 | 0 | 0.0 | 0.0 | 0.00 | 5.26 | 0.20 | 62 | 1016.3 |
| 20260905181003 | 27 | 0 | 0.0 | 0.0 | 0.00 | 5.26 | 0.20 | 62 | 1016.3 |
| 20260905180903 | 27 | 0 | 0.0 | 0.0 | 0.00 | 5.26 | 0.20 | 62 | 1016.4 |
| 20260905180803 | 27 | 0 | 0.0 | 0.0 | 0.00 | 5.26 | 0.20 | 62 | 1016.3 |
| 20260905180703 | 27 | 0 | 0.0 | 0.0 | 0.00 | 5.26 | 0.20 | 62 | 1016.3 |
| 20260905180603 | 27 | 0 | 0.0 | 0.0 | 0.00 | 5.26 | 0.20 | 62 | 1016.3 |
| 20260905180503 | 27 | 0 | 0.0 | 0.0 | 0.00 | 5.26 | 0.20 | 62 | 1016.5 |
| 20260905180403 | 27 | 0 | 0.0 | 0.0 | 0.00 | 5.26 | 0.20 | 62 | 1016.3 |
| 20260905180303 | 27 | 0 | 0.0 | 0.0 | 0.00 | 5.26 | 0.20 | 62 | 1016.5 |
| 20260905180203 | 27 | 0 | 0.0 | 0.0 | 0.00 | 5.26 | 0.20 | 62 | 1016.5 |
| 20260905180103 | 27 | 0 | 0.0 | 0.0 | 0.00 | 5.26 | 0.20 | 62 | 1016.5 |
| 20260905180003 | 27 | 0 | 0.0 | 0.0 | 0.00 | 5.26 | 0.20 | 62 | 1016.3 |
| 20260905175903 | 27 | 0 | 0.0 | 0.0 | 0.00 | 5.26 | 0.20 | 62 | 1016.3 |
| 20260905175803 | 27 | 0 | 0.0 | 0.0 | 0.00 | 5.26 | 0.20 | 62 | 1016.2 |
| 20260905175703 | 27 | 0 | 0.0 | 0.0 | 0.00 | 5.26 | 0.20 | 62 | 1016.3 |
| 20260905175603 | 27 | 0 | 0.0 | 0.0 | 0.00 | 5.26 | 0.20 | 62 | 1016.3 |
| 20260905175504 | 27 | 0 | 0.0 | 0.0 | 0.00 | 5.26 | 0.20 | 62 | 1016.3 |
| 20260905175404 | 27 | 0 | 0.0 | 0.0 | 0.00 | 5.26 | 0.20 | 62 | 1016.4 |
| 20260905175306 | 27 | 0 | 0.0 | 0.0 | 0.00 | 5.26 | 0.20 | 62 | 1016.2 |
| 20260905175204 | 27 | 0 | 0.0 | 0.0 | 0.00 | 5.26 | 0.20 | 62 | 1016.1 |
| 20260905175103 | 27 | 0 | 0.0 | 0.0 | 0.00 | 5.26 | 0.20 | 62 | 1016.4 |
| 20260905175003 | 27 | 0 | 0.0 | 0.0 | 0.00 | 5.26 | 0.20 | 62 | 1016.3 |
| 20260905174904 | 27 | 0 | 0.0 | 0.0 | 0.00 | 5.26 | 0.20 | 62 | 1016.1 |
| 20260905174813 | 27 | 0 | 0.0 | 0.0 | 0.00 | 5.26 | 0.20 | 62 | 1016.3 |
| 20260905174703 | 27 | 0 | 0.0 | 0.0 | 0.00 | 5.26 | 0.20 | 61 | 1016.4 |
| 20260905174603 | 27 | 0 | 0.0 | 0.0 | 0.00 | 5.26 | 0.20 | 61 | 1016.4 |
| 20260905174503 | 27 | 0 | 0.0 | 0.0 | 0.00 | 5.26 | 0.20 | 61 | 1016.5 |
| 20260905174403 | 27 | 0 | 0.0 | 0.0 | 0.00 | 5.26 | 0.20 | 61 | 1016.4 |
| 20260905174303 | 27 | 0 | 0.0 | 0.0 | 0.00 | 5.26 | 0.20 | 61 | 1016.4 |
| 20260905174203 | 27 | 0 | 0.0 | 0.0 | 0.00 | 5.26 | 0.20 | 61 | 1016.4 |
| 20260905174103 | 27 | 0 | 0.0 | 0.0 | 0.00 | 5.26 | 0.20 | 61 | 1016.2 |
| 20260905174003 | 27 | 0 | 0.0 | 0.0 | 0.00 | 5.26 | 0.20 | 61 | 1016.3 |
| 20260905173903 | 27 | 0 | 0.0 | 0.0 | 0.00 | 5.26 | 0.20 | 61 | 1016.4 |
| 20260905173803 | 27 | 0 | 0.0 | 0.0 | 0.00 | 5.26 | 0.20 | 61 | 1016.5 |
| 20260905173713 | 27 | 0 | 0.0 | 0.0 | 0.00 | 5.26 | 0.20 | 61 | 1016.4 |
| 20260905173603 | 27 | 0 | 0.0 | 0.0 | 0.00 | 5.26 | 0.20 | 61 | 1016.6 |
| 20260905173503 | 27 | 0 | 0.0 | 0.0 | 0.00 | 5.26 | 0.20 | 61 | 1016.5 |
| 20260905173403 | 27 | 0 | 0.0 | 0.0 | 0.00 | 5.26 | 0.20 | 61 | 1016.2 |
| 20260905173303 | 27 | 0 | 0.0 | 0.0 | 0.00 | 5.26 | 0.20 | 60 | 1016.2 |
| 20260905173203 | 27 | 0 | 0.0 | 0.0 | 0.00 | 5.26 | 0.20 | 60 | 1016.5 |
| 20260905173103 | 27 | 0 | 0.0 | 0.0 | 0.00 | 5.26 | 0.20 | 60 | 1016.3 |
| 20260905173003 | 27 | 0 | 0.0 | 0.0 | 0.00 | 5.26 | 0.20 | 60 | 1016.2 |
| 20260905172903 | 27 | 0 | 0.0 | 0.0 | 0.00 | 5.26 | 0.20 | 60 | 1016.4 |
| 20260905172803 | 27 | 0 | 0.0 | 0.0 | 0.00 | 5.26 | 0.20 | 60 | 1016.4 |
| 20260905172703 | 28 | 0 | 0.0 | 0.0 | 0.00 | 5.26 | 0.20 | 60 | 1016.4 |
| 20260905172603 | 28 | 0 | 0.0 | 0.0 | 0.00 | 5.26 | 0.20 | 60 | 1016.2 |
| 20260905172503 | 28 | 0 | 0.0 | 0.0 | 0.00 | 5.26 | 0.20 | 59 | 1016.3 |
| 20260905172403 | 28 | 0 | 0.0 | 0.0 | 0.00 | 5.26 | 0.20 | 59 | 1016.4 |
| 20260905172305 | 28 | 0 | 0.0 | 0.0 | 0.00 | 5.26 | 0.20 | 59 | 1016.3 |
| 20260905172203 | 28 | 270 | 0.0 | 3.2 | 0.00 | 5.26 | 0.20 | 59 | 1016.2 |
| 20260905172103 | 28 | 258 | 0.0 | 3.2 | 0.00 | 5.26 | 0.20 | 59 | 1016.3 |
| 20260905172003 | 28 | 258 | 0.0 | 3.2 | 0.00 | 5.26 | 0.20 | 59 | 1016.4 |
| 20260905171903 | 28 | 258 | 0.0 | 3.2 | 0.00 | 5.26 | 0.20 | 59 | 1016.2 |
| 20260905171803 | 28 | 258 | 0.0 | 3.2 | 0.00 | 5.26 | 0.20 | 59 | 1016.3 |
| 20260905171703 | 28 | 258 | 0.0 | 3.2 | 0.00 | 5.26 | 0.20 | 59 | 1016.4 |
| 20260905171603 | 28 | 258 | 0.0 | 3.2 | 0.00 | 5.26 | 0.20 | 59 | 1016.4 |
| 20260905171503 | 28 | 258 | 0.0 | 3.2 | 0.00 | 5.26 | 0.20 | 58 | 1016.5 |
| 20260905171403 | 28 | 258 | 0.0 | 3.2 | 0.00 | 5.26 | 0.20 | 58 | 1016.2 |
| 20260905171303 | 28 | 258 | 0.0 | 3.2 | 0.00 | 5.26 | 0.20 | 58 | 1016.5 |
| 20260905171203 | 28 | 253 | 0.0 | 3.2 | 0.00 | 5.26 | 0.20 | 58 | 1016.5 |
| 20260905171103 | 28 | 0 | 0.0 | 0.0 | 0.00 | 5.26 | 0.20 | 58 | 1016.3 |
| 20260905171003 | 28 | 0 | 0.0 | 0.0 | 0.00 | 5.26 | 0.20 | 57 | 1016.3 |
| 20260905170903 | 28 | 0 | 0.0 | 0.0 | 0.00 | 5.26 | 0.20 | 57 | 1016.3 |
| 20260905170803 | 28 | 0 | 0.0 | 0.0 | 0.00 | 5.26 | 0.20 | 57 | 1016.3 |
| 20260905170703 | 29 | 0 | 0.0 | 0.0 | 0.00 | 5.26 | 0.20 | 56 | 1016.5 |
| 20260905170603 | 29 | 0 | 0.0 | 0.0 | 0.00 | 5.26 | 0.20 | 55 | 1016.4 |
| 20260905170503 | 29 | 0 | 0.0 | 0.0 | 0.00 | 5.26 | 0.20 | 56 | 1016.3 |
| 20260905170403 | 29 | 0 | 0.0 | 0.0 | 0.00 | 5.26 | 0.20 | 56 | 1016.4 |
| 20260905170303 | 29 | 0 | 0.0 | 0.0 | 0.00 | 5.26 | 0.20 | 56 | 1016.3 |
| 20260905170203 | 29 | 0 | 0.0 | 0.0 | 0.00 | 5.26 | 0.20 | 56 | 1016.3 |
| 20260905170003 | 29 | 0 | 0.0 | 0.0 | 0.00 | 5.26 | 0.20 | 56 | 1016.5 |
| 20260905165903 | 29 | 0 | 0.0 | 0.0 | 0.00 | 5.26 | 0.20 | 56 | 1016.3 |
| 20260905165803 | 29 | 0 | 0.0 | 0.0 | 0.00 | 5.26 | 0.20 | 56 | 1016.5 |
| 20260905165703 | 29 | 0 | 0.0 | 0.0 | 0.00 | 5.26 | 0.20 | 56 | 1016.4 |
| 20260905165603 | 29 | 0 | 0.0 | 0.0 | 0.00 | 5.26 | 0.20 | 56 | 1016.3 |
| 20260905165503 | 29 | 0 | 0.0 | 0.0 | 0.00 | 5.26 | 0.20 | 56 | 1016.2 |
| 20260905165403 | 29 | 0 | 0.0 | 0.0 | 0.00 | 5.26 | 0.20 | 56 | 1016.2 |
| 20260905165306 | 29 | 0 | 0.0 | 0.0 | 0.00 | 5.26 | 0.20 | 56 | 1016.4 |
| 20260905165203 | 29 | 0 | 0.0 | 0.0 | 0.00 | 5.26 | 0.20 | 55 | 1016.4 |
| 20260905165103 | 29 | 0 | 0.0 | 0.0 | 0.00 | 5.26 | 0.20 | 55 | 1016.1 |
| 20260905165003 | 29 | 0 | 0.0 | 0.0 | 0.00 | 5.26 | 0.20 | 55 | 1016.5 |
| 20260905164903 | 29 | 0 | 0.0 | 0.0 | 0.00 | 5.26 | 0.20 | 55 | 1016.1 |
| 20260905164803 | 29 | 0 | 0.0 | 0.0 | 0.00 | 5.26 | 0.20 | 54 | 1016.2 |
| 20260905164703 | 29 | 0 | 0.0 | 0.0 | 0.00 | 5.26 | 0.20 | 54 | 1016.3 |
| 20260905164603 | 29 | 0 | 0.0 | 0.0 | 0.00 | 5.26 | 0.20 | 54 | 1016.3 |
| 20260905164503 | 29 | 0 | 0.0 | 0.0 | 0.00 | 5.26 | 0.20 | 55 | 1016.2 |
| 20260905164403 | 29 | 247 | 0.0 | 3.2 | 0.00 | 5.26 | 0.20 | 55 | 1016.5 |
| 20260905164303 | 29 | 247 | 0.0 | 3.2 | 0.00 | 5.26 | 0.20 | 56 | 1016.1 |
| 20260905164203 | 29 | 247 | 0.0 | 3.2 | 0.00 | 5.26 | 0.20 | 56 | 1016.3 |
| 20260905164103 | 29 | 247 | 0.0 | 3.2 | 0.00 | 5.26 | 0.20 | 55 | 1016.5 |
| 20260905164004 | 29 | 247 | 0.0 | 3.2 | 0.00 | 5.26 | 0.20 | 55 | 1016.3 |
| 20260905163903 | 29 | 249 | 1.6 | 3.2 | 0.00 | 5.26 | 0.20 | 55 | 1016.2 |
| 20260905163803 | 29 | 254 | 1.6 | 3.2 | 0.00 | 5.26 | 0.20 | 55 | 1016.2 |
| 20260905163704 | 29 | 255 | 1.6 | 3.2 | 0.00 | 5.26 | 0.20 | 55 | 1016.1 |
| 20260905163603 | 29 | 251 | 1.6 | 3.2 | 0.00 | 5.26 | 0.20 | 55 | 1016.4 |
| 20260905163504 | 29 | 245 | 1.6 | 3.2 | 0.00 | 5.26 | 0.20 | 55 | 1016.3 |
| 20260905163403 | 29 | 246 | 1.6 | 3.2 | 0.00 | 5.26 | 0.20 | 55 | 1016.3 |
| 20260905163303 | 29 | 245 | 1.6 | 3.2 | 0.00 | 5.26 | 0.20 | 55 | 1016.3 |
| 20260905163203 | 29 | 245 | 1.6 | 3.2 | 0.00 | 5.26 | 0.20 | 56 | 1016.3 |
| 20260905163103 | 29 | 237 | 1.6 | 3.2 | 0.00 | 5.26 | 0.20 | 57 | 1016.5 |
| 20260905163004 | 29 | 234 | 1.6 | 3.2 | 0.00 | 5.26 | 0.20 | 57 | 1016.3 |
| 20260905162903 | 29 | 234 | 1.6 | 3.2 | 0.00 | 5.26 | 0.20 | 57 | 1016.4 |
| 20260905162803 | 29 | 225 | 1.6 | 3.2 | 0.00 | 5.26 | 0.20 | 57 | 1016.4 |
| 20260905162703 | 29 | 225 | 1.6 | 3.2 | 0.00 | 5.26 | 0.20 | 58 | 1016.4 |
| 20260905162603 | 29 | 232 | 1.6 | 3.2 | 0.00 | 5.26 | 0.20 | 58 | 1016.2 |
| 20260905162503 | 29 | 245 | 1.6 | 3.2 | 0.00 | 5.26 | 0.20 | 58 | 1016.2 |
| 20260905162403 | 29 | 250 | 1.6 | 3.2 | 0.00 | 5.26 | 0.20 | 58 | 1016.3 |
| 20260905162305 | 29 | 250 | 1.6 | 3.2 | 0.00 | 5.26 | 0.20 | 60 | 1016.5 |
| 20260905162203 | 29 | 249 | 1.6 | 3.2 | 0.00 | 5.26 | 0.20 | 60 | 1016.2 |
| 20260905162103 | 29 | 251 | 1.6 | 3.2 | 0.00 | 5.26 | 0.20 | 61 | 1016.3 |
| 20260905162003 | 29 | 259 | 1.6 | 3.2 | 0.00 | 5.26 | 0.20 | 61 | 1016.3 |
| 20260905161903 | 29 | 264 | 1.6 | 3.2 | 0.00 | 5.26 | 0.20 | 61 | 1016.3 |
| 20260905161803 | 29 | 266 | 3.2 | 3.2 | 0.00 | 5.26 | 0.20 | 62 | 1016.3 |
| 20260905161703 | 29 | 267 | 3.2 | 3.2 | 0.00 | 5.26 | 0.20 | 62 | 1016.2 |
| 20260905161603 | 28 | 267 | 1.6 | 3.2 | 0.00 | 5.26 | 0.20 | 62 | 1016.2 |
| 20260905161503 | 28 | 268 | 1.6 | 3.2 | 0.00 | 5.26 | 0.20 | 63 | 1016.4 |
| 20260905161403 | 28 | 268 | 1.6 | 3.2 | 0.00 | 5.26 | 0.20 | 63 | 1016.4 |
| 20260905161303 | 29 | 276 | 1.6 | 3.2 | 0.00 | 5.26 | 0.20 | 63 | 1016.6 |
| 20260905161203 | 29 | 276 | 1.6 | 3.2 | 0.00 | 5.26 | 0.20 | 63 | 1016.2 |
| 20260905161103 | 29 | 273 | 1.6 | 3.2 | 0.00 | 5.26 | 0.20 | 64 | 1016.4 |
| 20260905161003 | 29 | 269 | 1.6 | 3.2 | 0.00 | 5.26 | 0.20 | 64 | 1016.3 |
| 20260905160903 | 29 | 265 | 1.6 | 3.2 | 0.00 | 5.26 | 0.20 | 64 | 1016.6 |
| 20260905160803 | 29 | 261 | 1.6 | 3.2 | 0.00 | 5.26 | 0.20 | 64 | 1016.3 |
| 20260905160703 | 29 | 260 | 1.6 | 3.2 | 0.00 | 5.26 | 0.20 | 65 | 1016.6 |
| 20260905160603 | 29 | 261 | 1.6 | 3.2 | 0.00 | 5.26 | 0.20 | 65 | 1016.5 |
| 20260905160503 | 29 | 264 | 1.6 | 3.2 | 0.00 | 5.26 | 0.20 | 64 | 1016.4 |
| 20260905160403 | 29 | 259 | 1.6 | 3.2 | 0.00 | 5.26 | 0.20 | 64 | 1016.4 |
| 20260905160303 | 29 | 253 | 1.6 | 3.2 | 0.00 | 5.26 | 0.20 | 64 | 1016.4 |
| 20260905160203 | 29 | 256 | 1.6 | 3.2 | 0.00 | 5.26 | 0.20 | 65 | 1016.2 |
| 20260905160004 | 29 | 267 | 1.6 | 3.2 | 0.00 | 5.26 | 0.20 | 65 | 1016.3 |
| 20260905155903 | 30 | 264 | 1.6 | 3.2 | 0.00 | 5.26 | 0.20 | 64 | 1016.3 |
| 20260905155803 | 30 | 260 | 3.2 | 3.2 | 0.00 | 5.26 | 0.20 | 64 | 1016.5 |
| 20260905155703 | 29 | 255 | 3.2 | 3.2 | 0.00 | 5.26 | 0.20 | 65 | 1016.4 |
| 20260905155604 | 29 | 255 | 3.2 | 3.2 | 0.00 | 5.26 | 0.20 | 64 | 1016.4 |
| 20260905155503 | 28 | 253 | 3.2 | 3.2 | 0.00 | 5.26 | 0.20 | 64 | 1016.2 |
| 20260905155403 | 29 | 252 | 3.2 | 3.2 | 0.00 | 5.26 | 0.20 | 64 | 1016.4 |
| 20260905155306 | 29 | 248 | 3.2 | 3.2 | 0.00 | 5.26 | 0.20 | 64 | 1016.3 |
| 20260905155203 | 29 | 247 | 3.2 | 3.2 | 0.00 | 5.26 | 0.20 | 64 | 1016.6 |
| 20260905155103 | 29 | 243 | 3.2 | 3.2 | 0.00 | 5.26 | 0.20 | 64 | 1016.2 |
| 20260905155003 | 29 | 243 | 3.2 | 3.2 | 0.00 | 5.26 | 0.20 | 63 | 1016.3 |
| 20260905154903 | 29 | 240 | 3.2 | 3.2 | 0.00 | 5.26 | 0.20 | 63 | 1016.3 |
| 20260905154803 | 29 | 245 | 3.2 | 3.2 | 0.00 | 5.26 | 0.20 | 63 | 1016.4 |
| 20260905154703 | 29 | 253 | 3.2 | 3.2 | 0.00 | 5.26 | 0.20 | 63 | 1016.5 |
| 20260905154617 | 29 | 255 | 3.2 | 3.2 | 0.00 | 5.26 | 0.20 | 63 | 1016.5 |
| 20260905154603 | 29 | 256 | 3.2 | 3.2 | 0.00 | 5.26 | 0.20 | 63 | 1016.2 |
| 20260905154503 | 29 | 254 | 3.2 | 3.2 | 0.00 | 5.26 | 0.20 | 63 | 1016.3 |
| 20260905154303 | 29 | 253 | 3.2 | 3.2 | 0.00 | 5.26 | 0.20 | 62 | 1016.4 |
| 20260905154203 | 29 | 247 | 3.2 | 3.2 | 0.00 | 5.26 | 0.20 | 63 | 1016.3 |
| 20260905154103 | 29 | 251 | 3.2 | 3.2 | 0.00 | 5.26 | 0.20 | 64 | 1016.5 |
| 20260905154003 | 29 | 251 | 3.2 | 3.2 | 0.00 | 5.26 | 0.20 | 63 | 1016.4 |
| 20260905153903 | 29 | 248 | 3.2 | 3.2 | 0.00 | 5.26 | 0.20 | 63 | 1016.4 |
| 20260905153803 | 29 | 241 | 3.2 | 3.2 | 0.00 | 5.26 | 0.20 | 64 | 1016.4 |
| 20260905153703 | 29 | 237 | 3.2 | 3.2 | 0.00 | 5.26 | 0.20 | 64 | 1016.4 |
| 20260905153603 | 29 | 231 | 3.2 | 3.2 | 0.00 | 5.26 | 0.20 | 64 | 1016.4 |
| 20260905153503 | 29 | 229 | 3.2 | 3.2 | 0.00 | 5.26 | 0.20 | 64 | 1016.4 |
| 20260905153403 | 29 | 231 | 3.2 | 3.2 | 0.00 | 5.26 | 0.20 | 64 | 1016.4 |
| 20260905153303 | 29 | 235 | 3.2 | 3.2 | 0.00 | 5.26 | 0.20 | 65 | 1016.4 |
| 20260905153203 | 29 | 242 | 3.2 | 3.2 | 0.00 | 5.26 | 0.20 | 65 | 1016.2 |
| 20260905153103 | 29 | 242 | 3.2 | 3.2 | 0.00 | 5.26 | 0.20 | 65 | 1016.4 |
| 20260905153003 | 29 | 242 | 3.2 | 3.2 | 0.00 | 5.26 | 0.20 | 65 | 1016.4 |
| 20260905152903 | 29 | 244 | 3.2 | 3.2 | 0.00 | 5.26 | 0.20 | 65 | 1016.5 |
| 20260905152803 | 29 | 248 | 3.2 | 3.2 | 0.00 | 5.26 | 0.20 | 65 | 1016.3 |
| 20260905152703 | 29 | 250 | 3.2 | 3.2 | 0.00 | 5.26 | 0.20 | 65 | 1016.4 |
| 20260905152603 | 29 | 252 | 3.2 | 3.2 | 0.00 | 5.26 | 0.20 | 66 | 1016.6 |
| 20260905152503 | 29 | 249 | 3.2 | 6.4 | 0.00 | 5.26 | 0.20 | 65 | 1016.3 |
| 20260905152403 | 29 | 250 | 3.2 | 6.4 | 0.00 | 5.26 | 0.20 | 64 | 1016.7 |
| 20260905152306 | 29 | 249 | 3.2 | 6.4 | 0.00 | 5.26 | 0.20 | 64 | 1016.6 |
| 20260905152203 | 29 | 247 | 3.2 | 6.4 | 0.00 | 5.26 | 0.20 | 63 | 1016.2 |
| 20260905152103 | 29 | 243 | 3.2 | 6.4 | 0.00 | 5.26 | 0.20 | 65 | 1016.4 |
| 20260905152004 | 29 | 241 | 3.2 | 6.4 | 0.00 | 5.26 | 0.20 | 65 | 1016.4 |
| 20260905151903 | 29 | 240 | 3.2 | 6.4 | 0.00 | 5.26 | 0.20 | 65 | 1016.4 |
| 20260905151803 | 29 | 241 | 3.2 | 6.4 | 0.00 | 5.26 | 0.20 | 66 | 1016.5 |
| 20260905151703 | 29 | 241 | 3.2 | 6.4 | 0.00 | 5.26 | 0.20 | 66 | 1016.5 |
| 20260905151603 | 29 | 242 | 3.2 | 6.4 | 0.00 | 5.26 | 0.20 | 65 | 1016.6 |
| 20260905151503 | 29 | 246 | 3.2 | 6.4 | 0.00 | 5.26 | 0.20 | 65 | 1016.4 |
| 20260905151403 | 30 | 253 | 3.2 | 3.2 | 0.00 | 5.26 | 0.20 | 63 | 1016.6 |
| 20260905151303 | 30 | 259 | 3.2 | 3.2 | 0.00 | 5.26 | 0.20 | 63 | 1016.6 |
| 20260905151203 | 30 | 261 | 3.2 | 6.4 | 0.00 | 5.26 | 0.20 | 64 | 1016.5 |
| 20260905151103 | 30 | 261 | 3.2 | 6.4 | 0.00 | 5.26 | 0.20 | 63 | 1016.3 |
| 20260905151003 | 29 | 272 | 3.2 | 6.4 | 0.00 | 5.26 | 0.20 | 64 | 1016.4 |
| 20260905150903 | 30 | 274 | 3.2 | 6.4 | 0.00 | 5.26 | 0.20 | 64 | 1016.6 |
| 20260905150803 | 30 | 274 | 3.2 | 6.4 | 0.00 | 5.26 | 0.20 | 63 | 1016.5 |
| 20260905150703 | 30 | 273 | 3.2 | 6.4 | 0.00 | 5.26 | 0.20 | 61 | 1016.6 |
| 20260905150603 | 30 | 268 | 3.2 | 6.4 | 0.00 | 5.26 | 0.20 | 60 | 1016.3 |
| 20260905150503 | 30 | 262 | 3.2 | 6.4 | 0.00 | 5.26 | 0.20 | 61 | 1016.5 |
| 20260905150403 | 29 | 255 | 3.2 | 6.4 | 0.00 | 5.26 | 0.20 | 61 | 1016.4 |
| 20260905150303 | 30 | 252 | 3.2 | 6.4 | 0.00 | 5.26 | 0.20 | 59 | 1016.5 |
| 20260905150203 | 30 | 249 | 3.2 | 6.4 | 0.00 | 5.26 | 0.20 | 59 | 1016.5 |
| 20260905150103 | 30 | 251 | 3.2 | 6.4 | 0.00 | 5.26 | 0.20 | 58 | 1016.3 |
| 20260905150004 | 30 | 243 | 3.2 | 6.4 | 0.00 | 5.26 | 0.20 | 61 | 1016.4 |
| 20260905145903 | 30 | 242 | 3.2 | 3.2 | 0.00 | 5.26 | 0.20 | 63 | 1016.4 |
| 20260905145803 | 30 | 242 | 3.2 | 3.2 | 0.00 | 5.26 | 0.20 | 63 | 1016.4 |
| 20260905145703 | 30 | 243 | 3.2 | 3.2 | 0.00 | 5.26 | 0.20 | 63 | 1016.5 |
| 20260905145603 | 30 | 241 | 3.2 | 6.4 | 0.00 | 5.26 | 0.20 | 63 | 1016.5 |
| 20260905145503 | 30 | 244 | 3.2 | 6.4 | 0.00 | 5.26 | 0.20 | 62 | 1016.4 |
| 20260905145403 | 30 | 248 | 3.2 | 6.4 | 0.00 | 5.26 | 0.20 | 60 | 1016.5 |
| 20260905145306 | 30 | 253 | 3.2 | 6.4 | 0.00 | 5.26 | 0.20 | 60 | 1016.4 |
| 20260905145203 | 30 | 253 | 3.2 | 6.4 | 0.00 | 5.26 | 0.20 | 60 | 1016.2 |
| 20260905145103 | 30 | 250 | 3.2 | 6.4 | 0.00 | 5.26 | 0.20 | 60 | 1016.3 |
| 20260905145003 | 30 | 249 | 3.2 | 6.4 | 0.00 | 5.26 | 0.20 | 60 | 1016.3 |
| 20260905144903 | 30 | 246 | 3.2 | 6.4 | 0.00 | 5.26 | 0.20 | 60 | 1016.5 |
| 20260905144803 | 30 | 249 | 3.2 | 6.4 | 0.00 | 5.26 | 0.20 | 60 | 1016.4 |
| 20260905144703 | 30 | 251 | 3.2 | 6.4 | 0.00 | 5.26 | 0.20 | 61 | 1016.5 |
| 20260905144603 | 30 | 256 | 3.2 | 3.2 | 0.00 | 5.26 | 0.20 | 60 | 1016.5 |
| 20260905144503 | 30 | 258 | 3.2 | 3.2 | 0.00 | 5.26 | 0.20 | 62 | 1016.5 |
| 20260905144403 | 29 | 253 | 3.2 | 3.2 | 0.00 | 5.26 | 0.20 | 62 | 1016.2 |
| 20260905144303 | 30 | 253 | 3.2 | 3.2 | 0.00 | 5.26 | 0.20 | 60 | 1016.4 |
| 20260905144203 | 30 | 251 | 3.2 | 3.2 | 0.00 | 5.26 | 0.20 | 59 | 1016.2 |
| 20260905144103 | 30 | 254 | 3.2 | 3.2 | 0.00 | 5.26 | 0.20 | 61 | 1016.4 |
| 20260905144003 | 30 | 255 | 3.2 | 3.2 | 0.00 | 5.26 | 0.20 | 62 | 1016.7 |
| 20260905143903 | 29 | 255 | 3.2 | 3.2 | 0.00 | 5.26 | 0.20 | 64 | 1016.4 |
| 20260905143803 | 29 | 252 | 3.2 | 3.2 | 0.00 | 5.26 | 0.20 | 66 | 1016.4 |
| 20260905143703 | 29 | 249 | 3.2 | 3.2 | 0.00 | 5.26 | 0.20 | 65 | 1016.4 |
| 20260905143603 | 29 | 251 | 3.2 | 3.2 | 0.00 | 5.26 | 0.20 | 65 | 1016.4 |
| 20260905143503 | 30 | 252 | 3.2 | 3.2 | 0.00 | 5.26 | 0.20 | 62 | 1016.6 |
| 20260905143403 | 30 | 258 | 3.2 | 3.2 | 0.00 | 5.26 | 0.20 | 61 | 1016.2 |
| 20260905143303 | 30 | 256 | 3.2 | 3.2 | 0.00 | 5.26 | 0.20 | 60 | 1016.5 |
| 20260905143203 | 30 | 255 | 3.2 | 3.2 | 0.00 | 5.26 | 0.20 | 59 | 1016.6 |
| 20260905143103 | 30 | 263 | 3.2 | 6.4 | 0.00 | 5.26 | 0.20 | 56 | 1016.6 |
| 20260905143003 | 30 | 267 | 3.2 | 6.4 | 0.00 | 5.26 | 0.20 | 55 | 1016.5 |
| 20260905142903 | 30 | 267 | 3.2 | 6.4 | 0.00 | 5.26 | 0.20 | 58 | 1016.5 |
| 20260905142803 | 30 | 267 | 3.2 | 6.4 | 0.00 | 5.26 | 0.20 | 58 | 1016.5 |
| 20260905142703 | 29 | 269 | 3.2 | 6.4 | 0.00 | 5.26 | 0.20 | 64 | 1016.4 |
| 20260905142603 | 30 | 271 | 3.2 | 6.4 | 0.00 | 5.26 | 0.20 | 65 | 1016.6 |
| 20260905142503 | 30 | 271 | 3.2 | 6.4 | 0.00 | 5.26 | 0.20 | 65 | 1016.7 |
| 20260905142403 | 30 | 264 | 3.2 | 6.4 | 0.00 | 5.26 | 0.20 | 66 | 1016.5 |
| 20260905142305 | 29 | 266 | 3.2 | 6.4 | 0.00 | 5.26 | 0.20 | 64 | 1016.7 |
| 20260905142203 | 29 | 267 | 3.2 | 6.4 | 0.00 | 5.26 | 0.20 | 66 | 1016.6 |
| 20260905142103 | 29 | 265 | 3.2 | 6.4 | 0.00 | 5.26 | 0.20 | 66 | 1016.5 |
| 20260905142003 | 29 | 258 | 3.2 | 3.2 | 0.00 | 5.26 | 0.20 | 67 | 1016.7 |
| 20260905141903 | 30 | 260 | 3.2 | 3.2 | 0.00 | 5.26 | 0.20 | 66 | 1016.5 |
| 20260905141803 | 30 | 265 | 3.2 | 6.4 | 0.00 | 5.26 | 0.20 | 67 | 1016.6 |
| 20260905141703 | 29 | 267 | 3.2 | 6.4 | 0.00 | 5.26 | 0.20 | 67 | 1016.6 |
| 20260905141603 | 30 | 268 | 3.2 | 6.4 | 0.00 | 5.26 | 0.20 | 66 | 1016.7 |
| 20260905141503 | 29 | 272 | 4.8 | 6.4 | 0.00 | 5.26 | 0.20 | 65 | 1016.5 |
| 20260905141403 | 29 | 274 | 4.8 | 6.4 | 0.00 | 5.26 | 0.20 | 66 | 1016.4 |
| 20260905141303 | 29 | 273 | 4.8 | 6.4 | 0.00 | 5.26 | 0.20 | 63 | 1016.7 |
| 20260905141203 | 30 | 280 | 4.8 | 6.4 | 0.00 | 5.26 | 0.20 | 63 | 1016.6 |
| 20260905141103 | 30 | 278 | 4.8 | 6.4 | 0.00 | 5.26 | 0.20 | 63 | 1016.7 |
| 20260905141003 | 30 | 279 | 4.8 | 6.4 | 0.00 | 5.26 | 0.20 | 65 | 1016.7 |
| 20260905140903 | 30 | 279 | 4.8 | 6.4 | 0.00 | 5.26 | 0.20 | 64 | 1016.7 |
| 20260905140803 | 30 | 278 | 4.8 | 6.4 | 0.00 | 5.26 | 0.20 | 64 | 1016.5 |
| 20260905140703 | 30 | 282 | 4.8 | 6.4 | 0.00 | 5.26 | 0.20 | 65 | 1016.6 |
| 20260905140603 | 30 | 282 | 4.8 | 6.4 | 0.00 | 5.26 | 0.20 | 64 | 1016.7 |
| 20260905140503 | 30 | 282 | 4.8 | 6.4 | 0.00 | 5.26 | 0.20 | 63 | 1016.6 |
| 20260905140403 | 30 | 276 | 4.8 | 6.4 | 0.00 | 5.26 | 0.20 | 64 | 1016.6 |
| 20260905140303 | 30 | 276 | 4.8 | 6.4 | 0.00 | 5.26 | 0.20 | 64 | 1016.5 |
| 20260905140203 | 29 | 270 | 4.8 | 6.4 | 0.00 | 5.26 | 0.20 | 67 | 1016.6 |
| 20260905140104 | 30 | 270 | 4.8 | 6.4 | 0.00 | 5.26 | 0.20 | 67 | 1016.7 |
| 20260905140004 | 30 | 270 | 4.8 | 6.4 | 0.00 | 5.26 | 0.20 | 67 | 1016.6 |
| 20260905135903 | 30 | 270 | 4.8 | 6.4 | 0.00 | 5.26 | 0.20 | 67 | 1016.8 |
| 20260905135803 | 30 | 268 | 4.8 | 6.4 | 0.00 | 5.26 | 0.20 | 67 | 1016.6 |
| 20260905135703 | 30 | 259 | 4.8 | 6.4 | 0.00 | 5.26 | 0.20 | 68 | 1016.5 |
| 20260905135603 | 30 | 252 | 4.8 | 6.4 | 0.00 | 5.26 | 0.20 | 68 | 1016.7 |
| 20260905135503 | 30 | 247 | 4.8 | 6.4 | 0.00 | 5.26 | 0.20 | 69 | 1016.7 |
| 20260905135403 | 30 | 252 | 4.8 | 6.4 | 0.00 | 5.26 | 0.20 | 69 | 1016.7 |
| 20260905135306 | 30 | 246 | 3.2 | 6.4 | 0.00 | 5.26 | 0.20 | 69 | 1016.7 |
| 20260905135203 | 30 | 241 | 3.2 | 6.4 | 0.00 | 5.26 | 0.20 | 68 | 1016.7 |
| 20260905135103 | 30 | 239 | 3.2 | 6.4 | 0.00 | 5.26 | 0.20 | 68 | 1016.7 |
| 20260905135003 | 31 | 237 | 3.2 | 6.4 | 0.00 | 5.26 | 0.20 | 65 | 1016.7 |
| 20260905134903 | 30 | 234 | 3.2 | 6.4 | 0.00 | 5.26 | 0.20 | 64 | 1016.6 |
| 20260905134803 | 30 | 233 | 3.2 | 6.4 | 0.00 | 5.26 | 0.20 | 64 | 1016.7 |
| 20260905134703 | 31 | 237 | 3.2 | 6.4 | 0.00 | 5.26 | 0.20 | 63 | 1016.5 |
| 20260905134603 | 30 | 238 | 3.2 | 6.4 | 0.00 | 5.26 | 0.20 | 63 | 1016.7 |
| 20260905134503 | 30 | 240 | 3.2 | 6.4 | 0.00 | 5.26 | 0.20 | 63 | 1016.7 |
| 20260905134403 | 31 | 237 | 3.2 | 6.4 | 0.00 | 5.26 | 0.20 | 62 | 1016.5 |
| 20260905134303 | 30 | 239 | 3.2 | 6.4 | 0.00 | 5.26 | 0.20 | 62 | 1016.5 |
| 20260905134203 | 30 | 238 | 3.2 | 6.4 | 0.00 | 5.26 | 0.20 | 62 | 1016.5 |
| 20260905134103 | 30 | 239 | 3.2 | 6.4 | 0.00 | 5.26 | 0.20 | 63 | 1016.6 |
| 20260905134003 | 30 | 240 | 4.8 | 6.4 | 0.00 | 5.26 | 0.20 | 62 | 1016.5 |
| 20260905133903 | 30 | 241 | 4.8 | 6.4 | 0.00 | 5.26 | 0.20 | 62 | 1016.6 |
| 20260905133803 | 30 | 241 | 4.8 | 6.4 | 0.00 | 5.26 | 0.20 | 63 | 1016.6 |
| 20260905133703 | 30 | 239 | 4.8 | 9.7 | 0.00 | 5.26 | 0.20 | 62 | 1016.7 |
| 20260905133603 | 30 | 237 | 4.8 | 9.7 | 0.00 | 5.26 | 0.20 | 62 | 1016.7 |
| 20260905133503 | 30 | 233 | 4.8 | 9.7 | 0.00 | 5.26 | 0.20 | 62 | 1016.6 |
| 20260905133403 | 30 | 234 | 4.8 | 9.7 | 0.00 | 5.26 | 0.20 | 62 | 1016.8 |
| 20260905133303 | 30 | 234 | 4.8 | 9.7 | 0.00 | 5.26 | 0.20 | 62 | 1016.9 |
| 20260905133203 | 30 | 235 | 4.8 | 9.7 | 0.00 | 5.26 | 0.20 | 61 | 1016.6 |
| 20260905133103 | 30 | 236 | 4.8 | 9.7 | 0.00 | 5.26 | 0.20 | 63 | 1016.7 |
| 20260905133003 | 30 | 235 | 4.8 | 9.7 | 0.00 | 5.26 | 0.20 | 63 | 1016.6 |
| 20260905132903 | 30 | 231 | 4.8 | 9.7 | 0.00 | 5.26 | 0.20 | 60 | 1016.8 |
| 20260905132803 | 30 | 229 | 4.8 | 9.7 | 0.00 | 5.26 | 0.20 | 60 | 1016.9 |
| 20260905132703 | 30 | 230 | 4.8 | 6.4 | 0.00 | 5.26 | 0.20 | 60 | 1016.7 |
| 20260905132603 | 30 | 226 | 4.8 | 6.4 | 0.00 | 5.26 | 0.20 | 60 | 1016.7 |
| 20260905132503 | 30 | 226 | 4.8 | 6.4 | 0.00 | 5.26 | 0.20 | 61 | 1016.9 |
| 20260905132403 | 30 | 225 | 3.2 | 6.4 | 0.00 | 5.26 | 0.20 | 60 | 1016.8 |
| 20260905132305 | 30 | 225 | 3.2 | 6.4 | 0.00 | 5.26 | 0.20 | 61 | 1016.9 |
| 20260905132203 | 31 | 226 | 3.2 | 6.4 | 0.00 | 5.26 | 0.20 | 60 | 1016.8 |
| 20260905132103 | 31 | 224 | 3.2 | 6.4 | 0.00 | 5.26 | 0.20 | 59 | 1016.7 |
| 20260905132003 | 31 | 222 | 4.8 | 6.4 | 0.00 | 5.26 | 0.20 | 58 | 1016.9 |
| 20260905131903 | 31 | 221 | 3.2 | 6.4 | 0.00 | 5.26 | 0.20 | 59 | 1017.0 |
| 20260905131803 | 30 | 223 | 3.2 | 6.4 | 0.00 | 5.26 | 0.20 | 58 | 1016.8 |
| 20260905131703 | 31 | 216 | 3.2 | 6.4 | 0.00 | 5.26 | 0.20 | 57 | 1016.8 |
| 20260905131603 | 31 | 225 | 3.2 | 9.7 | 0.00 | 5.26 | 0.20 | 56 | 1016.7 |
| 20260905131503 | 31 | 230 | 3.2 | 9.7 | 0.00 | 5.26 | 0.20 | 60 | 1016.9 |
| 20260905131403 | 30 | 229 | 3.2 | 9.7 | 0.00 | 5.26 | 0.20 | 61 | 1016.6 |
| 20260905131303 | 30 | 232 | 3.2 | 9.7 | 0.00 | 5.26 | 0.20 | 60 | 1016.8 |
| 20260905131203 | 30 | 230 | 3.2 | 9.7 | 0.00 | 5.26 | 0.20 | 57 | 1016.9 |
| 20260905131103 | 31 | 229 | 4.8 | 9.7 | 0.00 | 5.26 | 0.20 | 58 | 1016.7 |
| 20260905131003 | 30 | 232 | 4.8 | 9.7 | 0.00 | 5.26 | 0.20 | 59 | 1016.9 |
| 20260905130903 | 30 | 234 | 4.8 | 9.7 | 0.00 | 5.26 | 0.20 | 60 | 1016.8 |
| 20260905130803 | 30 | 237 | 4.8 | 9.7 | 0.00 | 5.26 | 0.20 | 62 | 1016.9 |
| 20260905130703 | 30 | 238 | 4.8 | 9.7 | 0.00 | 5.26 | 0.20 | 62 | 1016.9 |
| 20260905130603 | 31 | 235 | 3.2 | 6.4 | 0.00 | 5.26 | 0.20 | 62 | 1016.9 |
| 20260905130503 | 31 | 237 | 3.2 | 6.4 | 0.00 | 5.26 | 0.20 | 60 | 1016.8 |
| 20260905130403 | 31 | 236 | 4.8 | 6.4 | 0.00 | 5.26 | 0.20 | 60 | 1016.9 |
| 20260905130303 | 31 | 234 | 4.8 | 6.4 | 0.00 | 5.26 | 0.20 | 59 | 1017.1 |
| 20260905130203 | 30 | 234 | 4.8 | 6.4 | 0.00 | 5.26 | 0.20 | 58 | 1017.1 |
| 20260905130003 | 30 | 233 | 4.8 | 6.4 | 0.00 | 5.26 | 0.20 | 60 | 1017.0 |
| 20260905125903 | 30 | 231 | 4.8 | 6.4 | 0.00 | 5.26 | 0.20 | 60 | 1016.9 |
| 20260905125803 | 30 | 231 | 4.8 | 6.4 | 0.00 | 5.26 | 0.20 | 62 | 1016.8 |
| 20260905125703 | 30 | 229 | 4.8 | 6.4 | 0.00 | 5.26 | 0.20 | 61 | 1016.8 |
| 20260905125603 | 30 | 230 | 4.8 | 6.4 | 0.00 | 5.26 | 0.20 | 59 | 1017.1 |
| 20260905125503 | 30 | 228 | 4.8 | 6.4 | 0.00 | 5.26 | 0.20 | 61 | 1016.9 |
| 20260905125403 | 30 | 230 | 4.8 | 6.4 | 0.00 | 5.26 | 0.20 | 61 | 1016.9 |
| 20260905125306 | 30 | 228 | 4.8 | 6.4 | 0.00 | 5.26 | 0.20 | 61 | 1017.0 |
| 20260905125203 | 31 | 229 | 4.8 | 6.4 | 0.00 | 5.26 | 0.20 | 60 | 1016.9 |
| 20260905125103 | 31 | 232 | 4.8 | 6.4 | 0.00 | 5.26 | 0.20 | 59 | 1017.0 |
| 20260905125003 | 31 | 232 | 4.8 | 6.4 | 0.00 | 5.26 | 0.20 | 59 | 1017.0 |
| 20260905124903 | 30 | 230 | 4.8 | 6.4 | 0.00 | 5.26 | 0.20 | 60 | 1017.2 |
| 20260905124804 | 31 | 228 | 4.8 | 6.4 | 0.00 | 5.26 | 0.20 | 59 | 1017.1 |
| 20260905124703 | 31 | 230 | 4.8 | 6.4 | 0.00 | 5.26 | 0.20 | 59 | 1017.0 |
| 20260905124603 | 31 | 232 | 4.8 | 6.4 | 0.00 | 5.26 | 0.20 | 59 | 1017.2 |
| 20260905124503 | 31 | 232 | 4.8 | 9.7 | 0.00 | 5.26 | 0.20 | 58 | 1017.0 |
| 20260905124403 | 30 | 231 | 6.4 | 9.7 | 0.00 | 5.26 | 0.20 | 57 | 1016.9 |
| 20260905124303 | 31 | 229 | 6.4 | 9.7 | 0.00 | 5.26 | 0.20 | 58 | 1017.0 |
| 20260905124203 | 31 | 227 | 6.4 | 9.7 | 0.00 | 5.26 | 0.20 | 57 | 1017.1 |
| 20260905124103 | 31 | 226 | 6.4 | 9.7 | 0.00 | 5.26 | 0.20 | 59 | 1017.2 |
| 20260905124003 | 31 | 225 | 6.4 | 9.7 | 0.00 | 5.26 | 0.20 | 60 | 1017.2 |
| 20260905123903 | 31 | 226 | 6.4 | 9.7 | 0.00 | 5.26 | 0.20 | 58 | 1017.0 |
| 20260905123803 | 31 | 227 | 6.4 | 9.7 | 0.00 | 5.26 | 0.20 | 59 | 1017.1 |
| 20260905123703 | 31 | 220 | 6.4 | 9.7 | 0.00 | 5.26 | 0.20 | 59 | 1017.2 |
| 20260905123603 | 31 | 217 | 6.4 | 9.7 | 0.00 | 5.26 | 0.20 | 58 | 1017.3 |
| 20260905123503 | 31 | 212 | 6.4 | 9.7 | 0.00 | 5.26 | 0.20 | 58 | 1017.3 |
| 20260905123403 | 31 | 204 | 6.4 | 12.9 | 0.00 | 5.26 | 0.20 | 57 | 1017.0 |
| 20260905123303 | 31 | 203 | 6.4 | 12.9 | 0.00 | 5.26 | 0.20 | 58 | 1017.3 |
| 20260905123203 | 31 | 203 | 6.4 | 12.9 | 0.00 | 5.26 | 0.20 | 57 | 1017.2 |
| 20260905123103 | 31 | 201 | 6.4 | 12.9 | 0.00 | 5.26 | 0.20 | 58 | 1017.3 |
| 20260905123003 | 31 | 201 | 6.4 | 12.9 | 0.00 | 5.26 | 0.20 | 57 | 1017.2 |
| 20260905122903 | 31 | 201 | 6.4 | 12.9 | 0.00 | 5.26 | 0.20 | 57 | 1017.2 |
| 20260905122803 | 31 | 204 | 6.4 | 12.9 | 0.00 | 5.26 | 0.20 | 56 | 1017.3 |
| 20260905122703 | 31 | 211 | 6.4 | 12.9 | 0.00 | 5.26 | 0.20 | 57 | 1017.3 |
| 20260905122603 | 31 | 209 | 6.4 | 12.9 | 0.00 | 5.26 | 0.20 | 56 | 1017.3 |
| 20260905122503 | 31 | 212 | 6.4 | 12.9 | 0.00 | 5.26 | 0.20 | 56 | 1016.9 |
| 20260905122403 | 31 | 220 | 6.4 | 12.9 | 0.00 | 5.26 | 0.20 | 56 | 1017.1 |
| 20260905122306 | 31 | 225 | 4.8 | 9.7 | 0.00 | 5.26 | 0.20 | 56 | 1017.1 |
| 20260905122203 | 31 | 227 | 4.8 | 6.4 | 0.00 | 5.26 | 0.20 | 56 | 1017.1 |
| 20260905122103 | 31 | 234 | 4.8 | 6.4 | 0.00 | 5.26 | 0.20 | 56 | 1017.3 |
| 20260905122003 | 31 | 230 | 4.8 | 6.4 | 0.00 | 5.26 | 0.20 | 56 | 1017.0 |
| 20260905121903 | 31 | 227 | 6.4 | 11.3 | 0.00 | 5.26 | 0.20 | 55 | 1017.1 |
| 20260905121803 | 31 | 226 | 6.4 | 11.3 | 0.00 | 5.26 | 0.20 | 55 | 1017.1 |
| 20260905121703 | 31 | 223 | 6.4 | 11.3 | 0.00 | 5.26 | 0.20 | 55 | 1017.2 |
| 20260905121603 | 31 | 227 | 4.8 | 11.3 | 0.00 | 5.26 | 0.20 | 55 | 1017.2 |
| 20260905121503 | 31 | 236 | 6.4 | 11.3 | 0.00 | 5.26 | 0.20 | 56 | 1017.1 |
| 20260905121403 | 31 | 238 | 4.8 | 11.3 | 0.00 | 5.26 | 0.20 | 55 | 1017.3 |
| 20260905121303 | 31 | 237 | 6.4 | 11.3 | 0.00 | 5.26 | 0.20 | 55 | 1017.2 |
| 20260905121203 | 31 | 236 | 6.4 | 11.3 | 0.00 | 5.26 | 0.20 | 55 | 1017.2 |
| 20260905121103 | 31 | 233 | 4.8 | 11.3 | 0.00 | 5.26 | 0.20 | 55 | 1017.1 |
| 20260905121003 | 31 | 234 | 4.8 | 11.3 | 0.00 | 5.26 | 0.20 | 55 | 1017.3 |
| 20260905120903 | 31 | 236 | 4.8 | 11.3 | 0.00 | 5.26 | 0.20 | 54 | 1017.1 |
| 20260905120804 | 32 | 240 | 4.8 | 6.4 | 0.00 | 5.26 | 0.20 | 54 | 1017.2 |
| 20260905120703 | 32 | 242 | 4.8 | 6.4 | 0.00 | 5.26 | 0.20 | 54 | 1017.2 |
| 20260905120603 | 31 | 240 | 4.8 | 6.4 | 0.00 | 5.26 | 0.20 | 55 | 1017.2 |
| 20260905120503 | 31 | 233 | 4.8 | 6.4 | 0.00 | 5.26 | 0.20 | 55 | 1017.3 |
| 20260905120403 | 31 | 231 | 4.8 | 6.4 | 0.00 | 5.26 | 0.20 | 54 | 1017.2 |
| 20260905120303 | 31 | 230 | 4.8 | 6.4 | 0.00 | 5.26 | 0.20 | 55 | 1017.4 |
| 20260905120203 | 31 | 229 | 4.8 | 6.4 | 0.00 | 5.26 | 0.20 | 55 | 1017.2 |
| 20260905120103 | 31 | 227 | 4.8 | 6.4 | 0.00 | 5.26 | 0.20 | 55 | 1017.3 |
| 20260905120004 | 31 | 229 | 4.8 | 6.4 | 0.00 | 5.26 | 0.20 | 55 | 1017.3 |
| 20260905115903 | 31 | 230 | 4.8 | 6.4 | 0.00 | 5.26 | 0.20 | 55 | 1017.1 |
| 20260905115803 | 31 | 230 | 4.8 | 6.4 | 0.00 | 5.26 | 0.20 | 55 | 1017.3 |
| 20260905115703 | 31 | 227 | 4.8 | 6.4 | 0.00 | 5.26 | 0.20 | 54 | 1017.3 |
| 20260905115603 | 31 | 230 | 4.8 | 6.4 | 0.00 | 5.26 | 0.20 | 53 | 1017.2 |
| 20260905115503 | 32 | 227 | 4.8 | 6.4 | 0.00 | 5.26 | 0.20 | 54 | 1017.4 |
| 20260905115403 | 31 | 226 | 4.8 | 6.4 | 0.00 | 5.26 | 0.20 | 55 | 1017.2 |
| 20260905115306 | 31 | 231 | 4.8 | 6.4 | 0.00 | 5.26 | 0.20 | 54 | 1017.2 |
| 20260905115203 | 31 | 237 | 4.8 | 6.4 | 0.00 | 5.26 | 0.20 | 54 | 1017.2 |
| 20260905115103 | 31 | 239 | 6.4 | 6.4 | 0.00 | 5.26 | 0.20 | 55 | 1017.1 |
| 20260905115003 | 30 | 237 | 6.4 | 6.4 | 0.00 | 5.26 | 0.20 | 55 | 1017.1 |
| 20260905114903 | 31 | 234 | 6.4 | 6.4 | 0.00 | 5.26 | 0.20 | 55 | 1017.4 |
| 20260905114803 | 31 | 238 | 6.4 | 6.4 | 0.00 | 5.26 | 0.20 | 55 | 1017.3 |
| 20260905114703 | 31 | 240 | 6.4 | 6.4 | 0.00 | 5.26 | 0.20 | 54 | 1017.2 |
| 20260905114603 | 31 | 240 | 6.4 | 6.4 | 0.00 | 5.26 | 0.20 | 54 | 1017.1 |
| 20260905114503 | 31 | 244 | 6.4 | 6.4 | 0.00 | 5.26 | 0.20 | 54 | 1017.4 |
| 20260905114403 | 31 | 247 | 6.4 | 9.7 | 0.00 | 5.26 | 0.20 | 55 | 1017.4 |
| 20260905114303 | 31 | 242 | 6.4 | 9.7 | 0.00 | 5.26 | 0.20 | 54 | 1017.3 |
| 20260905114203 | 31 | 238 | 4.8 | 9.7 | 0.00 | 5.26 | 0.20 | 54 | 1017.2 |
| 20260905114103 | 31 | 235 | 4.8 | 9.7 | 0.00 | 5.26 | 0.20 | 53 | 1017.3 |
| 20260905114003 | 31 | 236 | 4.8 | 9.7 | 0.00 | 5.26 | 0.20 | 53 | 1017.3 |
| 20260905113903 | 31 | 237 | 4.8 | 9.7 | 0.00 | 5.26 | 0.20 | 54 | 1017.5 |
| 20260905113803 | 31 | 228 | 4.8 | 9.7 | 0.00 | 5.26 | 0.20 | 56 | 1017.2 |
| 20260905113703 | 31 | 230 | 4.8 | 9.7 | 0.00 | 5.26 | 0.20 | 54 | 1017.3 |
| 20260905113603 | 31 | 228 | 4.8 | 9.7 | 0.00 | 5.26 | 0.20 | 54 | 1017.2 |
| 20260905113503 | 31 | 224 | 4.8 | 9.7 | 0.00 | 5.26 | 0.20 | 55 | 1017.4 |
| 20260905113403 | 31 | 221 | 4.8 | 9.7 | 0.00 | 5.26 | 0.20 | 55 | 1017.3 |
| 20260905113303 | 31 | 221 | 4.8 | 9.7 | 0.00 | 5.26 | 0.20 | 54 | 1017.3 |
| 20260905113203 | 31 | 223 | 4.8 | 9.7 | 0.00 | 5.26 | 0.20 | 54 | 1017.1 |
| 20260905113103 | 31 | 223 | 6.4 | 9.7 | 0.00 | 5.26 | 0.20 | 53 | 1017.3 |
| 20260905112904 | 31 | 222 | 6.4 | 6.4 | 0.00 | 5.26 | 0.20 | 54 | 1017.3 |
| 20260905112803 | 31 | 229 | 6.4 | 6.4 | 0.00 | 5.26 | 0.20 | 54 | 1017.4 |
| 20260905112703 | 31 | 227 | 6.4 | 6.4 | 0.00 | 5.26 | 0.20 | 54 | 1017.2 |
| 20260905112603 | 31 | 225 | 6.4 | 6.4 | 0.00 | 5.26 | 0.20 | 55 | 1017.4 |
| 20260905112503 | 31 | 226 | 6.4 | 6.4 | 0.00 | 5.26 | 0.20 | 54 | 1017.3 |
| 20260905112403 | 31 | 229 | 6.4 | 6.4 | 0.00 | 5.26 | 0.20 | 54 | 1017.4 |
| 20260905112305 | 31 | 232 | 6.4 | 6.4 | 0.00 | 5.26 | 0.20 | 55 | 1017.3 |
| 20260905112203 | 31 | 234 | 6.4 | 6.4 | 0.00 | 5.26 | 0.20 | 55 | 1017.4 |
| 20260905112103 | 31 | 237 | 6.4 | 6.4 | 0.00 | 5.26 | 0.20 | 55 | 1017.4 |
| 20260905112003 | 31 | 238 | 6.4 | 11.3 | 0.00 | 5.26 | 0.20 | 54 | 1017.6 |
| 20260905111903 | 31 | 236 | 6.4 | 11.3 | 0.00 | 5.26 | 0.20 | 54 | 1017.4 |
| 20260905111803 | 31 | 235 | 6.4 | 11.3 | 0.00 | 5.26 | 0.20 | 53 | 1017.3 |
| 20260905111703 | 31 | 239 | 6.4 | 11.3 | 0.00 | 5.26 | 0.20 | 53 | 1017.1 |
| 20260905111603 | 31 | 239 | 4.8 | 11.3 | 0.00 | 5.26 | 0.20 | 53 | 1017.4 |
| 20260905111503 | 31 | 239 | 4.8 | 11.3 | 0.00 | 5.26 | 0.20 | 52 | 1017.3 |
| 20260905111403 | 31 | 240 | 4.8 | 11.3 | 0.00 | 5.26 | 0.20 | 52 | 1017.4 |
| 20260905111303 | 31 | 237 | 4.8 | 11.3 | 0.00 | 5.26 | 0.20 | 51 | 1017.4 |
| 20260905111203 | 31 | 237 | 4.8 | 11.3 | 0.00 | 5.26 | 0.20 | 52 | 1017.3 |
| 20260905111104 | 32 | 237 | 4.8 | 11.3 | 0.00 | 5.26 | 0.20 | 52 | 1017.3 |
| 20260905111003 | 31 | 240 | 4.8 | 6.4 | 0.00 | 5.26 | 0.20 | 53 | 1017.3 |
| 20260905110903 | 31 | 235 | 4.8 | 6.4 | 0.00 | 5.26 | 0.20 | 52 | 1017.4 |
| 20260905110703 | 32 | 230 | 4.8 | 6.4 | 0.00 | 5.26 | 0.20 | 52 | 1017.2 |
| 20260905110603 | 31 | 231 | 4.8 | 6.4 | 0.00 | 5.26 | 0.20 | 52 | 1017.3 |
| 20260905110503 | 31 | 232 | 4.8 | 6.4 | 0.00 | 5.26 | 0.20 | 52 | 1017.4 |
| 20260905110403 | 31 | 230 | 6.4 | 6.4 | 0.00 | 5.26 | 0.20 | 52 | 1017.2 |
| 20260905110303 | 31 | 226 | 4.8 | 6.4 | 0.00 | 5.26 | 0.20 | 52 | 1017.2 |
| 20260905110203 | 31 | 223 | 4.8 | 6.4 | 0.00 | 5.26 | 0.20 | 51 | 1017.3 |
| 20260905110004 | 32 | 214 | 4.8 | 6.4 | 0.00 | 5.26 | 0.20 | 50 | 1017.4 |
| 20260905105903 | 32 | 218 | 4.8 | 6.4 | 0.00 | 5.26 | 0.20 | 50 | 1017.4 |
| 20260905105803 | 32 | 216 | 4.8 | 6.4 | 0.00 | 5.26 | 0.20 | 51 | 1017.3 |